GW3448 Weather Reports


Display with metric or nautical units.
time (UTC)temp
F
wind
direction
speed
MPH
gust
MPH
rain 1hr
in
rain 24hr
in
rain mn
in
humidity
%
barometer
mb
20260509055937 63 254 0.0 3.0 0.00 0.00 0.00 41 1017.0
20260509055833 63 110 0.0 3.0 0.00 0.00 0.00 41 1017.1
20260509055733 63 110 0.0 4.0 0.00 0.00 0.00 42 1017.1
20260509055702 63 110 0.0 4.0 0.00 0.00 0.00 41 1017.0
20260509055651 63 109 1.0 4.0 0.00 0.00 0.00 41 1017.1
20260509055331 63 92 1.0 4.0 0.00 0.00 0.00 41 1017.1
20260509055228 64 181 1.0 4.0 0.00 0.00 0.00 41 1017.0
20260509055155 64 136 1.0 4.0 0.00 0.00 0.00 41 1017.1
20260509055144 64 84 2.0 4.0 0.00 0.00 0.00 41 1017.0
20260509054846 64 141 1.0 4.0 0.00 0.00 0.00 41 1017.0
20260509054800 64 80 1.0 4.0 0.00 0.00 0.00 40 1017.0
20260509054738 64 150 1.0 4.0 0.00 0.00 0.00 41 1017.0
20260509054413 64 105 2.0 4.0 0.00 0.00 0.00 40 1017.0
20260509054312 64 131 2.0 4.0 0.00 0.00 0.00 40 1017.1
20260509054215 64 137 2.0 4.0 0.00 0.00 0.00 40 1017.0
20260509054110 64 123 2.0 4.0 0.00 0.00 0.00 39 1017.0
20260509054010 64 146 2.0 4.0 0.00 0.00 0.00 39 1017.0
20260509053910 64 157 1.0 4.0 0.00 0.00 0.00 39 1017.0
20260509053808 64 143 1.0 4.0 0.00 0.00 0.00 39 1017.0
20260509053717 64 147 2.0 4.0 0.00 0.00 0.00 39 1017.0
20260509053607 64 198 2.0 9.0 0.00 0.00 0.00 39 1016.9
20260509053510 64 168 1.0 9.0 0.00 0.00 0.00 39 1016.9
20260509053446 65 252 1.0 9.0 0.00 0.00 0.00 39 1016.9
20260509053432 65 252 1.0 9.0 0.00 0.00 0.00 39 1016.9
20260509053105 65 273 1.0 9.0 0.00 0.00 0.00 39 1016.8
20260509053004 65 224 2.0 9.0 0.00 0.00 0.00 39 1016.8
20260509052938 65 227 2.0 9.0 0.00 0.00 0.00 39 1016.8
20260509052927 65 265 3.0 9.0 0.00 0.00 0.00 39 1016.7
20260509052600 64 236 2.0 9.0 0.00 0.00 0.00 39 1016.7
20260509052535 64 256 3.0 7.0 0.00 0.00 0.00 39 1016.7
20260509052524 64 279 3.0 7.0 0.00 0.00 0.00 39 1016.7
20260509052207 64 224 3.0 7.0 0.00 0.00 0.00 39 1016.7
20260509052100 64 270 2.0 7.0 0.00 0.00 0.00 39 1016.6
20260509052001 64 213 3.0 7.0 0.00 0.00 0.00 40 1016.6
20260509051902 64 257 3.0 7.0 0.00 0.00 0.00 40 1016.6
20260509051821 64 230 4.0 7.0 0.00 0.00 0.00 40 1016.7
20260509051704 64 275 3.0 7.0 0.00 0.00 0.00 40 1016.7
20260509051555 64 280 1.0 6.0 0.00 0.00 0.00 40 1016.7
20260509051454 64 240 1.0 6.0 0.00 0.00 0.00 40 1016.7
20260509051432 64 221 1.0 3.0 0.00 0.00 0.00 40 1016.7
20260509051418 64 232 1.0 3.0 0.00 0.00 0.00 40 1016.7
20260509051044 65 254 2.0 3.0 0.00 0.00 0.00 39 1016.7
20260509050946 65 286 1.0 4.0 0.00 0.00 0.00 39 1016.6
20260509050844 65 262 0.0 8.0 0.00 0.00 0.00 39 1016.6
20260509050744 65 213 1.0 8.0 0.00 0.00 0.00 38 1016.4
20260509050637 66 201 1.0 8.0 0.00 0.00 0.00 38 1016.4
20260509050537 66 223 2.0 8.0 0.00 0.00 0.00 38 1016.4
20260509050430 66 263 1.0 8.0 0.00 0.00 0.00 37 1016.4
20260509050334 66 187 1.0 8.0 0.00 0.00 0.00 38 1016.4
20260509050231 66 242 1.0 8.0 0.00 0.00 0.00 37 1016.3
20260509050134 66 224 2.0 8.0 0.00 0.00 0.00 37 1016.3
20260509050030 66 232 3.0 8.0 0.00 0.00 0.00 37 1016.3
20260509045932 66 269 3.0 8.0 0.00 0.00 0.00 37 1016.3
20260509045829 66 240 2.0 6.0 0.00 0.00 0.00 37 1016.3
20260509045814 66 288 2.0 6.0 0.00 0.00 0.00 37 1016.3
20260509045750 65 273 2.0 6.0 0.00 0.00 0.00 37 1016.3
20260509045430 65 270 2.0 6.0 0.00 0.00 0.00 37 1016.3
20260509045330 65 263 3.0 6.0 0.00 0.00 0.00 37 1016.3
20260509045230 65 248 4.0 6.0 0.00 0.00 0.00 38 1016.3
20260509045130 65 259 3.0 6.0 0.00 0.00 0.00 38 1016.2
20260509045029 65 248 2.0 4.0 0.00 0.00 0.00 38 1016.2
20260509044931 65 271 2.0 4.0 0.00 0.00 0.00 38 1016.3
20260509044856 65 288 2.0 4.0 0.00 0.00 0.00 38 1016.2
20260509044843 65 254 2.0 4.0 0.00 0.00 0.00 39 1016.3
20260509044819 65 259 1.0 3.0 0.00 0.00 0.00 38 1016.3
20260509044432 65 261 0.0 4.0 0.00 0.00 0.00 39 1016.2
20260509044412 65 229 0.0 4.0 0.00 0.00 0.00 39 1016.2
20260509044359 65 229 0.0 4.0 0.00 0.00 0.00 39 1016.3
20260509044030 65 222 1.0 4.0 0.00 0.00 0.00 39 1016.2
20260509043930 65 252 1.0 4.0 0.00 0.00 0.00 38 1016.2
20260509043911 65 241 1.0 4.0 0.00 0.00 0.00 39 1016.2
20260509043900 65 171 1.0 6.0 0.00 0.00 0.00 39 1016.2
20260509043532 65 290 2.0 6.0 0.00 0.00 0.00 39 1016.2
20260509043425 65 234 2.0 6.0 0.00 0.00 0.00 38 1016.2
20260509043325 65 270 2.0 6.0 0.00 0.00 0.00 38 1016.2
20260509043225 65 265 1.0 6.0 0.00 0.00 0.00 38 1016.2
20260509043156 65 222 1.0 6.0 0.00 0.00 0.00 39 1016.2
20260509043141 65 217 2.0 6.0 0.00 0.00 0.00 38 1016.2
20260509042823 65 218 2.0 7.0 0.00 0.00 0.00 38 1016.2
20260509042720 65 181 2.0 7.0 0.00 0.00 0.00 39 1016.2
20260509042625 65 288 2.0 7.0 0.00 0.00 0.00 39 1016.2
20260509042610 65 233 1.0 7.0 0.00 0.00 0.00 39 1016.2
20260509042558 65 182 2.0 7.0 0.00 0.00 0.00 39 1016.2
20260509042545 65 232 2.0 7.0 0.00 0.00 0.00 39 1016.1
20260509042532 65 214 2.0 9.0 0.00 0.00 0.00 39 1016.1
20260509042509 65 178 2.0 10.0 0.00 0.00 0.00 39 1016.1
20260509041713 66 238 2.0 10.0 0.00 0.00 0.00 39 1016.1
20260509041608 66 219 2.0 10.0 0.00 0.00 0.00 38 1016.0
20260509041508 66 240 4.0 10.0 0.00 0.00 0.00 38 1016.0
20260509041407 66 211 4.0 10.0 0.00 0.00 0.00 38 1016.0
20260509041304 66 241 3.0 10.0 0.00 0.00 0.00 38 1015.9
20260509041202 67 169 1.0 10.0 0.00 0.00 0.00 38 1015.8
20260509041102 67 177 1.0 6.0 0.00 0.00 0.00 37 1015.9
20260509041002 67 250 2.0 6.0 0.00 0.00 0.00 36 1015.8
20260509040903 67 174 4.0 6.0 0.00 0.00 0.00 36 1015.7
20260509040806 67 167 4.0 6.0 0.00 0.00 0.00 35 1015.8
20260509040748 67 168 2.0 5.0 0.00 0.00 0.00 35 1015.7
20260509040723 68 173 1.0 4.0 0.00 0.00 0.00 34 1015.7
20260509040403 68 180 1.0 3.0 0.00 0.00 0.00 32 1015.7
20260509040303 68 206 2.0 3.0 0.00 0.00 0.00 31 1015.7
20260509040203 68 170 2.0 3.0 0.00 0.00 0.00 31 1015.7
20260509040005 68 182 1.0 3.0 0.00 0.00 0.00 30 1015.6
20260509035933 69 188 0.0 2.0 0.00 0.00 0.00 30 1015.6
20260509035920 69 196 1.0 2.0 0.00 0.00 0.00 30 1015.5
20260509035601 69 262 0.0 2.0 0.00 0.00 0.00 30 1015.5
20260509035501 69 245 0.0 3.0 0.00 0.00 0.00 29 1015.5
20260509035401 69 244 0.0 3.0 0.00 0.00 0.00 29 1015.5
20260509035306 69 245 0.0 4.0 0.00 0.00 0.00 29 1015.5
20260509035204 69 258 0.0 6.0 0.00 0.00 0.00 29 1015.4
20260509035131 69 258 0.0 6.0 0.00 0.00 0.00 29 1015.4
20260509035120 70 258 0.0 6.0 0.00 0.00 0.00 29 1015.4
20260509034800 70 258 2.0 6.0 0.00 0.00 0.00 28 1015.4
20260509034729 70 254 2.0 6.0 0.00 0.00 0.00 28 1015.4
20260509034634 70 254 2.0 6.0 0.00 0.00 0.00 27 1015.4
20260509034622 70 256 3.0 6.0 0.00 0.00 0.00 27 1015.4
20260509034303 70 274 2.0 6.0 0.00 0.00 0.00 27 1015.3
20260509034201 70 271 2.0 6.0 0.00 0.00 0.00 27 1015.4
20260509034102 70 271 1.0 6.0 0.00 0.00 0.00 27 1015.4
20260509034001 70 263 2.0 6.0 0.00 0.00 0.00 27 1015.4
20260509033902 70 248 3.0 6.0 0.00 0.00 0.00 27 1015.4
20260509033803 70 276 3.0 6.0 0.00 0.00 0.00 27 1015.4
20260509033702 70 262 2.0 4.0 0.00 0.00 0.00 27 1015.3
20260509033627 70 255 1.0 4.0 0.00 0.00 0.00 27 1015.4
20260509033616 70 266 1.0 3.0 0.00 0.00 0.00 28 1015.3
20260509033605 70 257 1.0 3.0 0.00 0.00 0.00 28 1015.3
20260509033552 70 258 0.0 3.0 0.00 0.00 0.00 28 1015.3
20260509033538 70 150 1.0 2.0 0.00 0.00 0.00 27 1015.3
20260509033258 71 168 1.0 3.0 0.00 0.00 0.00 28 1015.2
20260509032809 71 202 0.0 4.0 0.00 0.00 0.00 27 1015.1
20260509032746 71 247 0.0 5.0 0.00 0.00 0.00 26 1015.0
20260509032516 71 273 2.0 5.0 0.00 0.00 0.00 25 1015.0
20260509032500 71 259 2.0 5.0 0.00 0.00 0.00 25 1015.0
20260509032449 71 293 2.0 5.0 0.00 0.00 0.00 25 1015.0
20260509032206 71 259 2.0 6.0 0.00 0.00 0.00 26 1014.9
20260509031659 71 263 1.0 6.0 0.00 0.00 0.00 25 1014.7
20260509031559 71 325 1.0 6.0 0.00 0.00 0.00 25 1014.8
20260509031547 71 305 1.0 6.0 0.00 0.00 0.00 25 1014.7
20260509031230 71 279 2.0 6.0 0.00 0.00 0.00 25 1014.7
20260509031129 71 281 3.0 6.0 0.00 0.00 0.00 25 1014.7
20260509031029 72 288 3.0 6.0 0.00 0.00 0.00 25 1014.6
20260509030929 72 277 3.0 6.0 0.00 0.00 0.00 25 1014.6
20260509030828 72 305 3.0 8.0 0.00 0.00 0.00 25 1014.6
20260509030729 72 281 1.0 11.0 0.00 0.00 0.00 25 1014.6
20260509030629 72 288 1.0 14.0 0.00 0.00 0.00 25 1014.5
20260509030530 72 315 1.0 14.0 0.00 0.00 0.00 25 1014.5
20260509030429 72 295 1.0 14.0 0.00 0.00 0.00 25 1014.5
20260509030330 72 284 1.0 14.0 0.00 0.00 0.00 25 1014.5
20260509030230 72 286 2.0 14.0 0.00 0.00 0.00 24 1014.5
20260509030206 72 255 2.0 14.0 0.00 0.00 0.00 24 1014.4
20260509030142 72 321 4.0 14.0 0.00 0.00 0.00 24 1014.4
20260509025820 73 271 6.0 14.0 0.00 0.00 0.00 24 1014.4
20260509025720 73 259 3.0 14.0 0.00 0.00 0.00 23 1014.4
20260509025619 73 262 4.0 9.0 0.00 0.00 0.00 23 1014.4
20260509025518 73 278 4.0 12.0 0.00 0.00 0.00 23 1014.4
20260509025417 73 263 3.0 12.0 0.00 0.00 0.00 23 1014.4
20260509025317 73 248 2.0 12.0 0.00 0.00 0.00 23 1014.4
20260509025216 73 337 2.0 12.0 0.00 0.00 0.00 23 1014.4
20260509025119 73 282 3.0 12.0 0.00 0.00 0.00 23 1014.4
20260509025016 73 284 4.0 12.0 0.00 0.00 0.00 23 1014.4
20260509024915 73 352 4.0 12.0 0.00 0.00 0.00 23 1014.4
20260509024815 73 308 4.0 12.0 0.00 0.00 0.00 22 1014.4
20260509024714 73 0 6.0 12.0 0.00 0.00 0.00 22 1014.4
20260509024616 74 277 5.0 12.0 0.00 0.00 0.00 23 1014.3
20260509024513 74 242 2.0 8.0 0.00 0.00 0.00 23 1014.4
20260509024412 74 288 2.0 8.0 0.00 0.00 0.00 23 1014.4
20260509024311 74 292 3.0 8.0 0.00 0.00 0.00 23 1014.4
20260509024213 74 272 3.0 8.0 0.00 0.00 0.00 23 1014.3
20260509024112 74 292 4.0 8.0 0.00 0.00 0.00 22 1014.3
20260509024013 74 286 3.0 11.0 0.00 0.00 0.00 23 1014.3
20260509023941 74 240 3.0 11.0 0.00 0.00 0.00 23 1014.3
20260509023929 74 294 3.0 11.0 0.00 0.00 0.00 23 1014.2
20260509023648 74 5 4.0 11.0 0.00 0.00 0.00 23 1014.2
20260509023626 74 267 4.0 11.0 0.00 0.00 0.00 23 1014.2
20260509023307 74 288 4.0 11.0 0.00 0.00 0.00 23 1014.2
20260509023203 75 332 6.0 11.0 0.00 0.00 0.00 22 1014.2
20260509023146 75 218 6.0 11.0 0.00 0.00 0.00 22 1014.2
20260509023122 75 290 4.0 10.0 0.00 0.00 0.00 24 1014.2
20260509022801 75 280 3.0 10.0 0.00 0.00 0.00 24 1014.1
20260509022704 75 290 4.0 10.0 0.00 0.00 0.00 24 1014.1
20260509022644 75 276 4.0 10.0 0.00 0.00 0.00 23 1014.1
20260509022622 75 292 3.0 10.0 0.00 0.00 0.00 23 1014.1
20260509022307 75 249 3.0 10.0 0.00 0.00 0.00 23 1014.1
20260509022205 76 290 4.0 10.0 0.00 0.00 0.00 23 1014.0
20260509022148 76 296 5.0 10.0 0.00 0.00 0.00 23 1014.0
20260509022121 76 291 6.0 10.0 0.00 0.00 0.00 22 1014.0
20260509021801 76 290 4.0 10.0 0.00 0.00 0.00 22 1014.0
20260509021701 76 284 5.0 10.0 0.00 0.00 0.00 23 1014.0
20260509021601 76 22 5.0 10.0 0.00 0.00 0.00 23 1013.9
20260509021500 76 282 4.0 10.0 0.00 0.00 0.00 22 1013.8
20260509021438 76 279 3.0 10.0 0.00 0.00 0.00 22 1013.8
20260509021426 76 328 3.0 10.0 0.00 0.00 0.00 23 1013.8
20260509021105 76 287 3.0 10.0 0.00 0.00 0.00 22 1013.8
20260509021002 77 269 3.0 8.0 0.00 0.00 0.00 23 1013.8
20260509020904 77 275 3.0 8.0 0.00 0.00 0.00 23 1013.8
20260509020801 77 303 2.0 8.0 0.00 0.00 0.00 22 1013.8
20260509020700 77 0 2.0 8.0 0.00 0.00 0.00 23 1013.8
20260509020601 77 324 3.0 8.0 0.00 0.00 0.00 23 1013.7
20260509020501 77 275 4.0 8.0 0.00 0.00 0.00 23 1013.7
20260509020401 77 292 4.0 8.0 0.00 0.00 0.00 24 1013.7
20260509020332 77 279 5.0 8.0 0.00 0.00 0.00 25 1013.7
20260509020315 76 266 4.0 13.0 0.00 0.00 0.00 24 1013.7
20260509020111 76 273 3.0 13.0 0.00 0.00 0.00 28 1013.6
20260509020002 76 242 2.0 13.0 0.00 0.00 0.00 29 1013.6
20260509015906 76 256 3.0 13.0 0.00 0.00 0.00 30 1013.6
20260509015801 76 256 3.0 13.0 0.00 0.00 0.00 31 1013.5
20260509015703 76 264 2.0 13.0 0.00 0.00 0.00 30 1013.5
20260509015600 76 171 2.0 13.0 0.00 0.00 0.00 33 1013.5
20260509015458 76 239 4.0 13.0 0.00 0.00 0.00 32 1013.6
20260509015357 76 248 5.0 13.0 0.00 0.00 0.00 32 1013.6
20260509015257 76 249 5.0 13.0 0.00 0.00 0.00 32 1013.6
20260509015157 76 246 6.0 12.0 0.00 0.00 0.00 32 1013.6
20260509015059 76 144 6.0 16.0 0.00 0.00 0.00 32 1013.6
20260509015026 76 275 4.0 16.0 0.00 0.00 0.00 32 1013.6
20260509015015 76 286 4.0 16.0 0.00 0.00 0.00 32 1013.7
20260509014724 76 263 4.0 16.0 0.00 0.00 0.00 32 1013.6
20260509014706 76 270 6.0 16.0 0.00 0.00 0.00 32 1013.6
20260509014643 76 274 6.0 16.0 0.00 0.00 0.00 32 1013.6
20260509014250 77 243 6.0 16.0 0.00 0.00 0.00 31 1013.5
20260509014150 77 250 5.0 16.0 0.00 0.00 0.00 31 1013.4
20260509014053 77 291 3.0 14.0 0.00 0.00 0.00 31 1013.4
20260509014021 77 163 2.0 14.0 0.00 0.00 0.00 31 1013.3
20260509014008 77 166 3.0 14.0 0.00 0.00 0.00 31 1013.3
20260509013956 77 142 6.0 14.0 0.00 0.00 0.00 31 1013.3
20260509013945 77 273 6.0 14.0 0.00 0.00 0.00 31 1013.3
20260509013933 77 293 5.0 13.0 0.00 0.00 0.00 31 1013.3
20260509013910 77 173 5.0 12.0 0.00 0.00 0.00 31 1013.4
20260509013636 77 248 5.0 11.0 0.00 0.00 0.00 31 1013.3
20260509013403 77 204 5.0 11.0 0.00 0.00 0.00 30 1013.3
20260509013119 77 219 3.0 11.0 0.00 0.00 0.00 30 1013.2
20260509012544 77 231 5.0 11.0 0.00 0.00 0.00 30 1013.4
20260509012438 78 246 6.0 11.0 0.00 0.00 0.00 30 1013.2
20260509012338 78 221 6.0 11.0 0.00 0.00 0.00 30 1013.3
20260509012236 78 171 4.0 11.0 0.00 0.00 0.00 29 1013.2
20260509012139 78 209 3.0 14.0 0.00 0.00 0.00 30 1013.2
20260509012121 78 257 3.0 16.0 0.00 0.00 0.00 30 1013.1
20260509012055 78 264 2.0 16.0 0.00 0.00 0.00 30 1013.2
20260509011733 78 240 4.0 16.0 0.00 0.00 0.00 30 1013.1
20260509011633 77 167 5.0 16.0 0.00 0.00 0.00 30 1013.0
20260509011607 77 248 6.0 16.0 0.00 0.00 0.00 30 1013.1
20260509011433 77 267 6.0 16.0 0.00 0.00 0.00 29 1013.1
20260509011329 77 234 5.0 16.0 0.00 0.00 0.00 29 1013.1
20260509011231 77 281 6.0 16.0 0.00 0.00 0.00 29 1013.1
20260509011130 77 168 8.0 16.0 0.00 0.00 0.00 29 1013.1
20260509011038 78 238 7.0 12.0 0.00 0.00 0.00 29 1013.1
20260509010929 78 254 6.0 13.0 0.00 0.00 0.00 29 1013.1
20260509010830 78 174 6.0 14.0 0.00 0.00 0.00 29 1013.1
20260509010729 78 225 5.0 14.0 0.00 0.00 0.00 29 1013.1
20260509010703 78 235 5.0 14.0 0.00 0.00 0.00 29 1013.0
20260509010650 78 237 6.0 14.0 0.00 0.00 0.00 28 1013.0
20260509010627 78 179 6.0 14.0 0.00 0.00 0.00 28 1013.1
20260509010352 78 161 6.0 14.0 0.00 0.00 0.00 28 1013.0
20260509010037 78 200 6.0 14.0 0.00 0.00 0.00 28 1012.9
20260509005928 78 200 7.0 14.0 0.00 0.00 0.00 28 1012.9
20260509005833 79 166 5.0 12.0 0.00 0.00 0.00 28 1013.0
20260509005727 79 267 4.0 14.0 0.00 0.00 0.00 28 1012.8
20260509005630 79 209 5.0 14.0 0.00 0.00 0.00 28 1012.8
20260509005531 79 322 6.0 14.0 0.00 0.00 0.00 28 1012.8
20260509005438 79 218 6.0 14.0 0.00 0.00 0.00 27 1012.8
20260509005422 79 210 4.0 14.0 0.00 0.00 0.00 27 1012.9
20260509005408 79 163 3.0 15.0 0.00 0.00 0.00 28 1012.9
20260509005137 79 286 6.0 15.0 0.00 0.00 0.00 28 1012.9
20260509005113 79 217 7.0 15.0 0.00 0.00 0.00 27 1012.9
20260509004841 79 188 5.0 15.0 0.00 0.00 0.00 27 1012.8
20260509004830 80 215 6.0 15.0 0.00 0.00 0.00 27 1012.9
20260509004817 80 229 6.0 15.0 0.00 0.00 0.00 27 1012.8
20260509004754 80 215 6.0 15.0 0.00 0.00 0.00 26 1012.9
20260509004229 80 231 5.0 12.0 0.00 0.00 0.00 25 1012.8
20260509004218 80 188 6.0 12.0 0.00 0.00 0.00 25 1012.8
20260509003936 80 256 6.0 12.0 0.00 0.00 0.00 25 1012.8
20260509003615 80 209 6.0 14.0 0.00 0.00 0.00 23 1012.9
20260509003521 80 148 5.0 14.0 0.00 0.00 0.00 22 1012.9
20260509003420 80 252 6.0 14.0 0.00 0.00 0.00 23 1012.8
20260509003403 80 223 7.0 14.0 0.00 0.00 0.00 22 1012.9
20260509003351 80 273 6.0 14.0 0.00 0.00 0.00 19 1012.8
20260509003338 80 257 6.0 14.0 0.00 0.00 0.00 19 1012.8
20260509003054 80 248 6.0 14.0 0.00 0.00 0.00 19 1012.8
20260509003041 80 262 8.0 15.0 0.00 0.00 0.00 18 1012.8
20260509002810 80 255 6.0 15.0 0.00 0.00 0.00 20 1012.8
20260509002756 80 263 7.0 15.0 0.00 0.00 0.00 20 1012.8
20260509002203 80 251 8.0 15.0 0.00 0.00 0.00 19 1012.8
20260509002108 80 234 7.0 15.0 0.00 0.00 0.00 19 1012.9
20260509002039 80 252 5.0 16.0 0.00 0.00 0.00 19 1012.8
20260509002024 80 273 5.0 16.0 0.00 0.00 0.00 19 1012.8
20260509001701 80 264 5.0 16.0 0.00 0.00 0.00 21 1012.9
20260509001604 80 227 5.0 16.0 0.00 0.00 0.00 24 1012.9
20260509001516 80 264 4.0 16.0 0.00 0.00 0.00 25 1012.9
20260509001402 80 250 5.0 16.0 0.00 0.00 0.00 26 1012.8
20260509001319 80 278 6.0 16.0 0.00 0.00 0.00 26 1012.9
20260509001204 80 259 7.0 16.0 0.00 0.00 0.00 26 1012.9
20260509001102 80 212 7.0 16.0 0.00 0.00 0.00 25 1013.0
20260509001011 80 182 5.0 12.0 0.00 0.00 0.00 25 1012.9
20260509000901 80 194 5.0 14.0 0.00 0.00 0.00 25 1012.9
20260509000802 80 231 4.0 14.0 0.00 0.00 0.00 25 1012.7
20260509000701 80 263 3.0 14.0 0.00 0.00 0.00 24 1012.8
20260509000602 80 263 4.0 14.0 0.00 0.00 0.00 23 1012.9
20260509000509 80 165 5.0 14.0 0.00 0.00 0.00 21 1012.9
20260509000403 80 257 5.0 14.0 0.00 0.00 0.00 21 1012.9
20260509000305 80 329 4.0 14.0 0.00 0.00 0.00 22 1013.0
20260509000204 80 240 5.0 14.0 0.00 0.00 0.00 21 1012.9
20260509000101 80 247 7.0 14.0 0.00 0.00 0.00 23 1013.0
20260509000009 80 225 6.0 14.0 0.00 0.00 0.00 26 1013.0
20260508235901 80 254 5.0 13.0 0.00 0.00 0.00 27 1013.0
20260508235802 80 128 4.0 13.0 0.00 0.00 0.00 26 1012.8
20260508235701 79 214 5.0 13.0 0.00 0.00 0.00 26 1012.9
20260508235602 79 217 4.0 13.0 0.00 0.00 0.00 26 1012.9
20260508235508 79 225 4.0 13.0 0.00 0.00 0.00 25 1012.9
20260508235403 79 205 5.0 13.0 0.00 0.00 0.00 26 1012.8
20260508235335 79 238 6.0 13.0 0.00 0.00 0.00 26 1012.9
20260508235322 79 223 6.0 13.0 0.00 0.00 0.00 26 1012.9
20260508235013 79 235 5.0 13.0 0.00 0.00 0.00 26 1012.9
20260508234901 79 245 5.0 13.0 0.00 0.00 0.00 26 1012.9
20260508234833 79 254 5.0 12.0 0.00 0.00 0.00 25 1012.9
20260508234819 79 214 4.0 12.0 0.00 0.00 0.00 26 1012.9
20260508234505 79 166 6.0 19.0 0.00 0.00 0.00 25 1012.9
20260508234357 79 209 4.0 19.0 0.00 0.00 0.00 26 1012.9
20260508234320 79 267 5.0 19.0 0.00 0.00 0.00 26 1012.8
20260508234308 79 254 5.0 19.0 0.00 0.00 0.00 26 1012.8
20260508234256 79 240 4.0 19.0 0.00 0.00 0.00 25 1012.9
20260508233854 79 139 5.0 19.0 0.00 0.00 0.00 25 1012.9
20260508233753 79 230 6.0 19.0 0.00 0.00 0.00 25 1013.0
20260508233654 79 231 8.0 19.0 0.00 0.00 0.00 24 1013.0
20260508233552 79 178 7.0 19.0 0.00 0.00 0.00 24 1013.0
20260508233501 79 230 6.0 13.0 0.00 0.00 0.00 24 1013.0
20260508233351 79 175 5.0 13.0 0.00 0.00 0.00 24 1013.0
20260508233318 80 148 4.0 13.0 0.00 0.00 0.00 25 1013.0
20260508233149 79 286 5.0 13.0 0.00 0.00 0.00 24 1013.0
20260508233049 79 248 6.0 13.0 0.00 0.00 0.00 24 1012.9
20260508232959 80 183 6.0 13.0 0.00 0.00 0.00 23 1013.0
20260508232848 80 193 6.0 13.0 0.00 0.00 0.00 24 1013.0
20260508232747 80 115 8.0 13.0 0.00 0.00 0.00 24 1013.1
20260508232646 80 171 7.0 13.0 0.00 0.00 0.00 23 1013.0
20260508232546 80 168 6.0 13.0 0.00 0.00 0.00 23 1013.1
20260508232500 80 241 6.0 11.0 0.00 0.00 0.00 23 1013.2
20260508232357 80 246 5.0 11.0 0.00 0.00 0.00 23 1013.1
20260508232339 80 201 4.0 11.0 0.00 0.00 0.00 23 1013.1
20260508232325 80 230 3.0 14.0 0.00 0.00 0.00 23 1013.2
20260508232314 80 282 4.0 14.0 0.00 0.00 0.00 24 1013.1
20260508232306 80 204 4.0 14.0 0.00 0.00 0.00 23 1013.1
20260508232238 80 19 4.0 14.0 0.00 0.00 0.00 23 1013.1
20260508232006 80 263 4.0 14.0 0.00 0.00 0.00 23 1013.2
20260508231503 80 113 6.0 14.0 0.00 0.00 0.00 23 1013.1
20260508231137 80 215 3.0 10.0 0.00 0.00 0.00 25 1013.2
20260508231036 80 186 4.0 10.0 0.00 0.00 0.00 24 1013.2
20260508230935 80 190 5.0 10.0 0.00 0.00 0.00 24 1013.2
20260508230835 80 261 5.0 10.0 0.00 0.00 0.00 23 1013.1
20260508230804 80 164 5.0 10.0 0.00 0.00 0.00 23 1013.1
20260508230753 80 168 4.0 12.0 0.00 0.00 0.00 23 1013.1
20260508230433 80 279 4.0 12.0 0.00 0.00 0.00 23 1013.1
20260508230406 80 247 5.0 12.0 0.00 0.00 0.00 23 1013.2
20260508230351 80 251 5.0 12.0 0.00 0.00 0.00 23 1013.2
20260508230031 80 223 3.0 12.0 0.00 0.00 0.00 23 1013.1
20260508225929 80 244 4.0 12.0 0.00 0.00 0.00 23 1013.1
20260508225829 80 223 5.0 12.0 0.00 0.00 0.00 23 1013.1
20260508225732 80 181 4.0 12.0 0.00 0.00 0.00 23 1013.2
20260508225714 80 222 4.0 14.0 0.00 0.00 0.00 22 1013.2
20260508225659 80 167 4.0 14.0 0.00 0.00 0.00 22 1013.3
20260508225330 80 239 4.0 14.0 0.00 0.00 0.00 23 1013.2
20260508225231 80 207 4.0 14.0 0.00 0.00 0.00 23 1013.2
20260508225129 80 269 4.0 14.0 0.00 0.00 0.00 23 1013.2
20260508225028 80 182 4.0 14.0 0.00 0.00 0.00 24 1013.2
20260508224928 80 264 6.0 14.0 0.00 0.00 0.00 24 1013.2
20260508224834 80 219 6.0 14.0 0.00 0.00 0.00 23 1013.2
20260508224815 80 150 3.0 14.0 0.00 0.00 0.00 24 1013.2
20260508224802 80 146 2.0 13.0 0.00 0.00 0.00 24 1013.2
20260508224750 80 114 4.0 13.0 0.00 0.00 0.00 23 1013.2
20260508224726 80 222 5.0 13.0 0.00 0.00 0.00 23 1013.2
20260508224714 80 186 4.0 13.0 0.00 0.00 0.00 23 1013.2
20260508224223 80 234 5.0 15.0 0.00 0.00 0.00 23 1013.2
20260508223847 80 265 4.0 15.0 0.00 0.00 0.00 24 1013.2
20260508223832 79 232 3.0 15.0 0.00 0.00 0.00 24 1013.2
20260508223821 79 125 4.0 15.0 0.00 0.00 0.00 25 1013.1
20260508223808 79 177 4.0 15.0 0.00 0.00 0.00 25 1013.2
20260508223216 79 170 4.0 10.0 0.00 0.00 0.00 25 1013.2
20260508223115 78 163 5.0 10.0 0.00 0.00 0.00 24 1013.2
20260508223014 78 271 5.0 11.0 0.00 0.00 0.00 24 1013.2
20260508222946 78 188 4.0 11.0 0.00 0.00 0.00 24 1013.1
20260508222933 78 175 5.0 11.0 0.00 0.00 0.00 25 1013.1
20260508222611 78 229 4.0 11.0 0.00 0.00 0.00 24 1013.2
20260508222510 79 150 4.0 11.0 0.00 0.00 0.00 25 1013.2
20260508222410 79 232 4.0 13.0 0.00 0.00 0.00 24 1013.2
20260508222309 79 212 5.0 13.0 0.00 0.00 0.00 24 1013.2
20260508222210 79 232 6.0 13.0 0.00 0.00 0.00 23 1013.2
20260508222107 79 299 5.0 13.0 0.00 0.00 0.00 24 1013.2
20260508222007 79 195 6.0 13.0 0.00 0.00 0.00 24 1013.2
20260508221906 79 248 6.0 13.0 0.00 0.00 0.00 24 1013.2
20260508221806 79 256 6.0 13.0 0.00 0.00 0.00 24 1013.3
20260508221705 79 162 6.0 13.0 0.00 0.00 0.00 24 1013.2
20260508221605 79 167 6.0 13.0 0.00 0.00 0.00 24 1013.2
20260508221504 80 223 7.0 13.0 0.00 0.00 0.00 23 1013.2
20260508221402 80 211 5.0 11.0 0.00 0.00 0.00 23 1013.2
20260508221304 80 238 5.0 11.0 0.00 0.00 0.00 23 1013.2
20260508221201 80 203 4.0 11.0 0.00 0.00 0.00 23 1013.2
20260508221101 80 154 4.0 12.0 0.00 0.00 0.00 24 1013.2
20260508221031 80 221 4.0 12.0 0.00 0.00 0.00 24 1013.2
20260508221003 80 159 4.0 12.0 0.00 0.00 0.00 24 1013.2
20260508220952 80 182 4.0 12.0 0.00 0.00 0.00 24 1013.1
20260508220601 79 168 4.0 12.0 0.00 0.00 0.00 25 1013.2
20260508220501 79 198 4.0 12.0 0.00 0.00 0.00 24 1013.2
20260508220401 79 202 5.0 12.0 0.00 0.00 0.00 24 1013.3
20260508220306 79 255 6.0 12.0 0.00 0.00 0.00 25 1013.2
20260508220202 79 298 6.0 12.0 0.00 0.00 0.00 24 1013.2
20260508220103 79 194 4.0 11.0 0.00 0.00 0.00 25 1013.2
20260508220046 79 282 3.0 10.0 0.00 0.00 0.00 25 1013.2
20260508220021 79 184 4.0 10.0 0.00 0.00 0.00 23 1013.2
20260508215705 79 251 5.0 13.0 0.00 0.00 0.00 25 1013.3
20260508215645 79 246 6.0 13.0 0.00 0.00 0.00 25 1013.3
20260508215633 79 164 6.0 14.0 0.00 0.00 0.00 24 1013.3
20260508215306 79 180 5.0 14.0 0.00 0.00 0.00 26 1013.4
20260508215200 79 234 5.0 14.0 0.00 0.00 0.00 25 1013.3
20260508215102 79 215 5.0 14.0 0.00 0.00 0.00 25 1013.3
20260508215004 79 206 7.0 14.0 0.00 0.00 0.00 25 1013.3
20260508214935 79 195 5.0 15.0 0.00 0.00 0.00 25 1013.4
20260508214922 79 213 5.0 15.0 0.00 0.00 0.00 25 1013.2
20260508214601 79 232 6.0 15.0 0.00 0.00 0.00 25 1013.4
20260508214501 79 180 4.0 15.0 0.00 0.00 0.00 25 1013.4
20260508214402 79 165 4.0 15.0 0.00 0.00 0.00 25 1013.4
20260508214306 79 205 5.0 15.0 0.00 0.00 0.00 25 1013.3
20260508214201 79 190 6.0 15.0 0.00 0.00 0.00 25 1013.2
20260508214102 79 182 6.0 15.0 0.00 0.00 0.00 25 1013.3
20260508214002 78 222 5.0 15.0 0.00 0.00 0.00 25 1013.4
20260508213909 78 223 4.0 12.0 0.00 0.00 0.00 26 1013.4
20260508213802 78 249 6.0 12.0 0.00 0.00 0.00 25 1013.3
20260508213737 78 265 6.0 12.0 0.00 0.00 0.00 25 1013.4
20260508213725 78 279 5.0 12.0 0.00 0.00 0.00 25 1013.4
20260508213401 78 273 6.0 12.0 0.00 0.00 0.00 25 1013.4
20260508213303 78 191 6.0 12.0 0.00 0.00 0.00 25 1013.4
20260508213200 78 158 5.0 12.0 0.00 0.00 0.00 24 1013.4
20260508213143 78 239 4.0 12.0 0.00 0.00 0.00 25 1013.4
20260508213132 78 227 4.0 12.0 0.00 0.00 0.00 26 1013.5
20260508212836 78 194 5.0 9.0 0.00 0.00 0.00 25 1013.4
20260508212823 78 213 6.0 9.0 0.00 0.00 0.00 25 1013.5
20260508212501 78 175 4.0 12.0 0.00 0.00 0.00 26 1013.6
20260508212404 78 229 4.0 12.0 0.00 0.00 0.00 25 1013.5
20260508212306 78 269 5.0 12.0 0.00 0.00 0.00 24 1013.5
20260508212201 78 241 6.0 12.0 0.00 0.00 0.00 26 1013.6
20260508212101 78 151 5.0 12.0 0.00 0.00 0.00 25 1013.6
20260508212005 78 252 5.0 12.0 0.00 0.00 0.00 25 1013.6
20260508211912 78 267 5.0 16.0 0.00 0.00 0.00 25 1013.6
20260508211802 78 352 5.0 16.0 0.00 0.00 0.00 26 1013.6
20260508211735 78 231 4.0 16.0 0.00 0.00 0.00 26 1013.6
20260508211721 78 245 4.0 16.0 0.00 0.00 0.00 25 1013.5
20260508211413 78 260 5.0 16.0 0.00 0.00 0.00 25 1013.5
20260508211303 78 169 5.0 16.0 0.00 0.00 0.00 26 1013.7
20260508211204 78 152 6.0 16.0 0.00 0.00 0.00 26 1013.7
20260508211141 78 221 6.0 16.0 0.00 0.00 0.00 27 1013.7
20260508211131 78 233 4.0 16.0 0.00 0.00 0.00 27 1013.6
20260508210803 78 227 5.0 14.0 0.00 0.00 0.00 28 1013.5
20260508210703 78 288 5.0 14.0 0.00 0.00 0.00 27 1013.5
20260508210603 78 333 4.0 14.0 0.00 0.00 0.00 28 1013.6
20260508210501 77 172 4.0 14.0 0.00 0.00 0.00 29 1013.6
20260508210409 77 299 6.0 14.0 0.00 0.00 0.00 29 1013.5
20260508210302 77 241 6.0 14.0 0.00 0.00 0.00 28 1013.5
20260508210236 77 261 6.0 14.0 0.00 0.00 0.00 27 1013.5
20260508210221 77 180 6.0 14.0 0.00 0.00 0.00 27 1013.4
20260508205909 78 206 4.0 13.0 0.00 0.00 0.00 29 1013.5
20260508205821 77 285 4.0 13.0 0.00 0.00 0.00 28 1013.5
20260508205807 77 246 5.0 13.0 0.00 0.00 0.00 29 1013.6
20260508205448 77 180 5.0 11.0 0.00 0.00 0.00 29 1013.6
20260508205348 77 254 4.0 12.0 0.00 0.00 0.00 30 1013.5
20260508205245 77 207 4.0 12.0 0.00 0.00 0.00 30 1013.4
20260508205148 77 210 5.0 12.0 0.00 0.00 0.00 30 1013.5
20260508205044 76 147 3.0 12.0 0.00 0.00 0.00 30 1013.6
20260508204946 76 222 4.0 12.0 0.00 0.00 0.00 30 1013.6
20260508204843 76 210 5.0 12.0 0.00 0.00 0.00 29 1013.6
20260508204745 76 161 5.0 12.0 0.00 0.00 0.00 30 1013.6
20260508204642 76 241 6.0 12.0 0.00 0.00 0.00 30 1013.6
20260508204541 76 162 7.0 12.0 0.00 0.00 0.00 30 1013.8
20260508204441 76 215 6.0 12.0 0.00 0.00 0.00 29 1013.6
20260508204339 76 257 4.0 12.0 0.00 0.00 0.00 30 1013.7
20260508204239 75 242 4.0 12.0 0.00 0.00 0.00 31 1013.6
20260508204138 75 174 5.0 12.0 0.00 0.00 0.00 29 1013.7
20260508204041 75 247 4.0 12.0 0.00 0.00 0.00 30 1013.8
20260508203936 75 238 4.0 12.0 0.00 0.00 0.00 30 1013.7
20260508203839 75 202 6.0 12.0 0.00 0.00 0.00 30 1013.7
20260508203735 75 184 6.0 12.0 0.00 0.00 0.00 31 1013.7
20260508203654 74 186 5.0 17.0 0.00 0.00 0.00 29 1013.7
20260508203643 74 281 5.0 17.0 0.00 0.00 0.00 29 1013.7
20260508203631 74 253 6.0 17.0 0.00 0.00 0.00 29 1014.0
20260508203607 74 232 7.0 17.0 0.00 0.00 0.00 28 1013.7
20260508203334 74 223 5.0 17.0 0.00 0.00 0.00 28 1013.7
20260508203321 74 18 5.0 17.0 0.00 0.00 0.00 28 1013.7
20260508202730 74 173 7.0 16.0 0.00 0.00 0.00 28 1013.9
20260508202629 74 205 5.0 12.0 0.00 0.00 0.00 30 1013.8
20260508202530 74 169 4.0 12.0 0.00 0.00 0.00 29 1013.8
20260508202429 74 245 5.0 12.0 0.00 0.00 0.00 29 1013.8
20260508202329 74 182 5.0 12.0 0.00 0.00 0.00 29 1013.7
20260508202229 74 146 4.0 12.0 0.00 0.00 0.00 29 1013.7
20260508202129 74 253 4.0 12.0 0.00 0.00 0.00 30 1013.7
20260508202028 74 349 5.0 12.0 0.00 0.00 0.00 29 1013.7
20260508202009 74 196 4.0 12.0 0.00 0.00 0.00 29 1013.8
20260508201947 74 279 4.0 12.0 0.00 0.00 0.00 29 1013.8
20260508201627 74 234 7.0 12.0 0.00 0.00 0.00 28 1013.8
20260508201525 74 271 6.0 12.0 0.00 0.00 0.00 28 1013.8
20260508201427 74 246 4.0 15.0 0.00 0.00 0.00 27 1013.8
20260508201324 74 210 5.0 15.0 0.00 0.00 0.00 28 1013.8
20260508201223 74 179 5.0 15.0 0.00 0.00 0.00 27 1013.8
20260508201156 74 219 5.0 15.0 0.00 0.00 0.00 28 1013.7
20260508201143 74 174 5.0 15.0 0.00 0.00 0.00 27 1013.8
20260508200821 74 240 7.0 19.0 0.00 0.00 0.00 27 1013.8
20260508200747 74 204 6.0 19.0 0.00 0.00 0.00 27 1013.7
20260508200620 74 196 6.0 19.0 0.00 0.00 0.00 27 1013.8
20260508200518 74 262 4.0 19.0 0.00 0.00 0.00 27 1013.9
20260508200418 74 196 3.0 19.0 0.00 0.00 0.00 28 1013.8
20260508200318 74 175 4.0 19.0 0.00 0.00 0.00 28 1013.8
20260508200217 74 286 7.0 19.0 0.00 0.00 0.00 26 1013.8
20260508200146 74 333 6.0 19.0 0.00 0.00 0.00 26 1013.9
20260508200133 74 180 5.0 19.0 0.00 0.00 0.00 28 1014.0
20260508195814 74 212 5.0 13.0 0.00 0.00 0.00 27 1013.7
20260508195713 75 244 6.0 14.0 0.00 0.00 0.00 27 1013.8
20260508195612 75 194 6.0 14.0 0.00 0.00 0.00 26 1013.8
20260508195511 75 156 6.0 14.0 0.00 0.00 0.00 27 1013.8
20260508195412 75 175 5.0 14.0 0.00 0.00 0.00 27 1013.8
20260508195310 75 217 5.0 14.0 0.00 0.00 0.00 27 1013.7
20260508195209 75 82 5.0 14.0 0.00 0.00 0.00 27 1013.7
20260508195110 75 241 5.0 14.0 0.00 0.00 0.00 26 1013.9
20260508195008 75 260 5.0 14.0 0.00 0.00 0.00 27 1013.7
20260508194908 75 263 6.0 14.0 0.00 0.00 0.00 27 1013.8
20260508194808 75 175 5.0 16.0 0.00 0.00 0.00 27 1013.7
20260508194707 75 188 5.0 16.0 0.00 0.00 0.00 27 1013.7
20260508194606 75 173 5.0 16.0 0.00 0.00 0.00 28 1013.9
20260508194548 75 272 5.0 16.0 0.00 0.00 0.00 29 1013.9
20260508194536 75 187 5.0 16.0 0.00 0.00 0.00 28 1013.7
20260508194236 75 188 5.0 16.0 0.00 0.00 0.00 28 1013.7
20260508194222 75 277 5.0 16.0 0.00 0.00 0.00 28 1013.7
20260508193902 75 269 5.0 16.0 0.00 0.00 0.00 27 1013.7
20260508193814 75 302 5.0 13.0 0.00 0.00 0.00 27 1013.6
20260508193801 75 205 6.0 13.0 0.00 0.00 0.00 28 1013.6
20260508193749 75 186 4.0 13.0 0.00 0.00 0.00 28 1013.6
20260508193738 75 273 7.0 12.0 0.00 0.00 0.00 29 1013.6
20260508193655 75 207 6.0 12.0 0.00 0.00 0.00 28 1013.7
20260508193100 75 244 5.0 12.0 0.00 0.00 0.00 27 1013.7
20260508193030 75 205 4.0 12.0 0.00 0.00 0.00 28 1013.7
20260508193017 75 202 5.0 12.0 0.00 0.00 0.00 29 1013.7
20260508192953 75 219 6.0 12.0 0.00 0.00 0.00 28 1013.7
20260508192720 75 264 5.0 12.0 0.00 0.00 0.00 29 1013.6
20260508192441 75 275 4.0 12.0 0.00 0.00 0.00 28 1013.7
20260508192416 75 229 5.0 12.0 0.00 0.00 0.00 29 1013.6
20260508192056 75 154 2.0 9.0 0.00 0.00 0.00 30 1013.8
20260508191955 75 216 2.0 9.0 0.00 0.00 0.00 30 1013.7
20260508191854 75 98 3.0 9.0 0.00 0.00 0.00 30 1013.7
20260508191754 75 171 3.0 9.0 0.00 0.00 0.00 30 1013.6
20260508191652 75 279 3.0 9.0 0.00 0.00 0.00 30 1013.7
20260508191619 75 244 3.0 12.0 0.00 0.00 0.00 30 1013.7
20260508191607 75 221 4.0 12.0 0.00 0.00 0.00 29 1013.7
20260508191555 75 333 4.0 12.0 0.00 0.00 0.00 31 1013.8
20260508191528 75 221 3.0 12.0 0.00 0.00 0.00 30 1013.8
20260508190948 74 182 4.0 12.0 0.00 0.00 0.00 31 1013.8
20260508190850 74 207 6.0 12.0 0.00 0.00 0.00 32 1013.8
20260508190747 74 193 6.0 12.0 0.00 0.00 0.00 31 1013.9
20260508190701 75 196 5.0 12.0 0.00 0.00 0.00 31 1013.9
20260508190643 75 304 5.0 13.0 0.00 0.00 0.00 32 1013.9
20260508190633 75 234 4.0 13.0 0.00 0.00 0.00 31 1013.8
20260508190620 75 264 3.0 13.0 0.00 0.00 0.00 30 1013.9
20260508190301 75 267 3.0 13.0 0.00 0.00 0.00 33 1014.0
20260508185941 75 169 3.0 13.0 0.00 0.00 0.00 34 1013.9
20260508185924 75 157 4.0 13.0 0.00 0.00 0.00 33 1014.0
20260508185900 74 180 5.0 13.0 0.00 0.00 0.00 35 1014.1
20260508185539 74 224 2.0 10.0 0.00 0.00 0.00 34 1014.1
20260508185437 74 190 3.0 10.0 0.00 0.00 0.00 36 1014.1
20260508185339 74 238 4.0 10.0 0.00 0.00 0.00 34 1014.1
20260508185236 74 219 4.0 10.0 0.00 0.00 0.00 34 1014.1
20260508185136 74 218 4.0 10.0 0.00 0.00 0.00 34 1014.1
20260508185035 74 209 3.0 12.0 0.00 0.00 0.00 34 1014.1
20260508184929 74 196 4.0 12.0 0.00 0.00 0.00 34 1014.0
20260508184834 74 216 6.0 12.0 0.00 0.00 0.00 32 1014.1
20260508184802 74 180 5.0 12.0 0.00 0.00 0.00 32 1014.0
20260508184751 74 192 3.0 12.0 0.00 0.00 0.00 32 1014.1
20260508184432 74 233 2.0 12.0 0.00 0.00 0.00 32 1014.1
20260508184330 74 219 4.0 12.0 0.00 0.00 0.00 33 1014.1
20260508184233 74 195 5.0 12.0 0.00 0.00 0.00 33 1014.1
20260508184129 74 271 4.0 12.0 0.00 0.00 0.00 33 1014.2
20260508184031 74 173 2.0 11.0 0.00 0.00 0.00 34 1014.2
20260508184012 74 211 3.0 11.0 0.00 0.00 0.00 35 1014.2
20260508184001 74 254 3.0 11.0 0.00 0.00 0.00 33 1014.1
20260508183630 74 202 3.0 14.0 0.00 0.00 0.00 34 1014.2
20260508183529 73 218 4.0 14.0 0.00 0.00 0.00 34 1014.2
20260508183429 73 223 4.0 14.0 0.00 0.00 0.00 35 1014.2
20260508183351 73 191 4.0 14.0 0.00 0.00 0.00 34 1014.2
20260508183228 73 201 6.0 14.0 0.00 0.00 0.00 34 1014.1
20260508183126 73 186 5.0 14.0 0.00 0.00 0.00 33 1014.1
20260508183026 73 157 4.0 14.0 0.00 0.00 0.00 34 1014.2
20260508182924 73 215 5.0 14.0 0.00 0.00 0.00 35 1014.2
20260508182825 73 187 4.0 14.0 0.00 0.00 0.00 36 1014.2
20260508182724 73 55 2.0 13.0 0.00 0.00 0.00 35 1014.1
20260508182657 73 214 3.0 13.0 0.00 0.00 0.00 35 1014.2
20260508182642 73 157 4.0 13.0 0.00 0.00 0.00 35 1014.2
20260508182322 73 173 4.0 13.0 0.00 0.00 0.00 33 1014.3
20260508182221 73 205 5.0 13.0 0.00 0.00 0.00 33 1014.2
20260508182121 73 180 5.0 13.0 0.00 0.00 0.00 32 1014.3
20260508182020 73 239 6.0 13.0 0.00 0.00 0.00 32 1014.3
20260508181918 73 236 6.0 13.0 0.00 0.00 0.00 32 1014.3
20260508181819 73 241 4.0 13.0 0.00 0.00 0.00 34 1014.3
20260508181717 73 264 5.0 13.0 0.00 0.00 0.00 35 1014.2
20260508181617 73 278 6.0 13.0 0.00 0.00 0.00 35 1014.2
20260508181538 72 275 4.0 9.0 0.00 0.00 0.00 38 1014.2
20260508181523 72 253 2.0 8.0 0.00 0.00 0.00 38 1014.2
20260508181510 72 244 2.0 8.0 0.00 0.00 0.00 39 1014.2
20260508181445 72 227 3.0 8.0 0.00 0.00 0.00 39 1014.1
20260508181215 71 185 4.0 10.0 0.00 0.00 0.00 38 1014.2
20260508180943 71 277 4.0 10.0 0.00 0.00 0.00 40 1014.2
20260508180613 71 182 3.0 10.0 0.00 0.00 0.00 42 1014.3
20260508180508 71 123 4.0 12.0 0.00 0.00 0.00 41 1014.3
20260508180414 70 173 4.0 12.0 0.00 0.00 0.00 42 1014.4
20260508180334 70 232 3.0 12.0 0.00 0.00 0.00 42 1014.4
20260508180207 70 205 4.0 12.0 0.00 0.00 0.00 44 1014.4
20260508180105 70 161 4.0 12.0 0.00 0.00 0.00 44 1014.5
20260508180015 70 252 4.0 12.0 0.00 0.00 0.00 43 1014.4
20260508175958 70 170 5.0 12.0 0.00 0.00 0.00 44 1014.4
20260508175947 70 219 6.0 12.0 0.00 0.00 0.00 45 1014.4
20260508175922 70 147 6.0 12.0 0.00 0.00 0.00 45 1014.4
20260508175911 70 162 5.0 12.0 0.00 0.00 0.00 44 1014.5
20260508175639 69 163 4.0 9.0 0.00 0.00 0.00 46 1014.5
20260508175627 69 219 2.0 9.0 0.00 0.00 0.00 46 1014.5
20260508175122 68 250 3.0 9.0 0.00 0.00 0.00 47 1014.5
20260508174805 68 182 4.0 9.0 0.00 0.00 0.00 50 1014.4
20260508174701 68 188 4.0 9.0 0.00 0.00 0.00 49 1014.4
20260508174602 67 182 2.0 9.0 0.00 0.00 0.00 49 1014.5
20260508174502 67 173 3.0 7.0 0.00 0.00 0.00 49 1014.4
20260508174402 67 172 4.0 7.0 0.00 0.00 0.00 49 1014.4
20260508174304 67 215 4.0 7.0 0.00 0.00 0.00 49 1014.4
20260508174202 67 138 4.0 7.0 0.00 0.00 0.00 49 1014.5
20260508174100 67 175 3.0 7.0 0.00 0.00 0.00 49 1014.4
20260508174001 67 231 3.0 7.0 0.00 0.00 0.00 49 1014.5
20260508173911 67 205 3.0 7.0 0.00 0.00 0.00 50 1014.4
20260508173854 67 192 3.0 7.0 0.00 0.00 0.00 50 1014.4
20260508173830 67 155 2.0 7.0 0.00 0.00 0.00 50 1014.4
20260508173817 67 130 2.0 9.0 0.00 0.00 0.00 51 1014.4
20260508173806 67 196 3.0 9.0 0.00 0.00 0.00 51 1014.4
20260508173537 67 188 4.0 9.0 0.00 0.00 0.00 51 1014.4
20260508173251 66 263 4.0 9.0 0.00 0.00 0.00 52 1014.3
20260508172902 66 196 5.0 9.0 0.00 0.00 0.00 50 1014.3
20260508172803 67 213 5.0 9.0 0.00 0.00 0.00 51 1014.3
20260508172701 67 156 4.0 9.0 0.00 0.00 0.00 50 1014.3
20260508172602 67 243 3.0 8.0 0.00 0.00 0.00 51 1014.4
20260508172501 67 185 3.0 7.0 0.00 0.00 0.00 51 1014.3
20260508172426 67 172 3.0 10.0 0.00 0.00 0.00 51 1014.3
20260508172411 67 217 3.0 10.0 0.00 0.00 0.00 50 1014.3
20260508172348 67 169 4.0 10.0 0.00 0.00 0.00 50 1014.4
20260508172116 67 208 2.0 10.0 0.00 0.00 0.00 50 1014.4
20260508171757 67 146 4.0 10.0 0.00 0.00 0.00 49 1014.3
20260508171655 67 200 4.0 10.0 0.00 0.00 0.00 49 1014.3
20260508171619 67 243 5.0 10.0 0.00 0.00 0.00 49 1014.3
20260508171608 67 205 4.0 10.0 0.00 0.00 0.00 49 1014.4
20260508171556 67 238 4.0 10.0 0.00 0.00 0.00 49 1014.3
20260508171311 67 178 4.0 10.0 0.00 0.00 0.00 49 1014.3
20260508170951 67 241 3.0 12.0 0.00 0.00 0.00 49 1014.2
20260508170850 67 198 2.0 13.0 0.00 0.00 0.00 49 1014.2
20260508170833 67 240 2.0 13.0 0.00 0.00 0.00 49 1014.2
20260508170810 67 164 2.0 13.0 0.00 0.00 0.00 49 1014.2
20260508170449 67 203 4.0 13.0 0.00 0.00 0.00 50 1014.2
20260508170347 67 211 5.0 13.0 0.00 0.00 0.00 49 1014.2
20260508170248 67 225 5.0 13.0 0.00 0.00 0.00 50 1014.2
20260508170145 67 184 6.0 13.0 0.00 0.00 0.00 50 1014.2
20260508170105 67 200 5.0 13.0 0.00 0.00 0.00 50 1014.2
20260508170048 67 213 2.0 13.0 0.00 0.00 0.00 49 1014.2
20260508170037 67 230 3.0 12.0 0.00 0.00 0.00 50 1014.2
20260508165641 67 242 5.0 12.0 0.00 0.00 0.00 49 1014.2
20260508165611 67 279 4.0 12.0 0.00 0.00 0.00 49 1014.1
20260508165600 67 212 3.0 12.0 0.00 0.00 0.00 49 1014.2
20260508165243 66 236 4.0 12.0 0.00 0.00 0.00 50 1014.2
20260508165138 66 244 4.0 12.0 0.00 0.00 0.00 49 1014.2
20260508165037 66 250 4.0 12.0 0.00 0.00 0.00 49 1014.1
20260508165017 66 159 4.0 12.0 0.00 0.00 0.00 49 1014.1
20260508165006 66 254 3.0 12.0 0.00 0.00 0.00 49 1014.1
20260508164635 66 286 4.0 12.0 0.00 0.00 0.00 49 1014.1
20260508164534 66 178 4.0 12.0 0.00 0.00 0.00 49 1014.1
20260508164515 66 213 5.0 12.0 0.00 0.00 0.00 49 1014.1
20260508164501 66 193 6.0 13.0 0.00 0.00 0.00 50 1014.1
20260508164130 66 205 5.0 13.0 0.00 0.00 0.00 49 1014.1
20260508164029 66 181 3.0 13.0 0.00 0.00 0.00 49 1014.1
20260508163929 66 207 4.0 13.0 0.00 0.00 0.00 49 1014.0
20260508163829 66 151 5.0 13.0 0.00 0.00 0.00 50 1014.0
20260508163734 66 253 5.0 13.0 0.00 0.00 0.00 49 1014.1
20260508163628 66 215 6.0 13.0 0.00 0.00 0.00 50 1014.1
20260508163529 66 194 6.0 13.0 0.00 0.00 0.00 50 1014.1
20260508163429 66 135 5.0 13.0 0.00 0.00 0.00 50 1014.0
20260508163329 66 237 4.0 12.0 0.00 0.00 0.00 50 1014.0
20260508163251 66 159 5.0 12.0 0.00 0.00 0.00 50 1014.0
20260508163223 66 226 5.0 12.0 0.00 0.00 0.00 51 1014.0
20260508163212 65 189 5.0 12.0 0.00 0.00 0.00 51 1014.0
20260508163201 65 153 3.0 12.0 0.00 0.00 0.00 52 1014.0
20260508163148 65 281 2.0 12.0 0.00 0.00 0.00 52 1014.0
20260508162528 65 252 4.0 12.0 0.00 0.00 0.00 51 1014.0
20260508162429 65 162 4.0 12.0 0.00 0.00 0.00 51 1014.0
20260508162328 65 209 3.0 12.0 0.00 0.00 0.00 51 1014.0
20260508162231 65 180 3.0 12.0 0.00 0.00 0.00 51 1013.9
20260508162129 65 221 5.0 12.0 0.00 0.00 0.00 51 1013.9
20260508162028 65 250 6.0 12.0 0.00 0.00 0.00 50 1014.0
20260508161928 65 202 4.0 12.0 0.00 0.00 0.00 50 1013.9
20260508161829 65 236 4.0 10.0 0.00 0.00 0.00 51 1013.9
20260508161729 65 215 4.0 10.0 0.00 0.00 0.00 51 1013.9
20260508161628 65 259 3.0 10.0 0.00 0.00 0.00 51 1014.0
20260508161602 64 206 3.0 10.0 0.00 0.00 0.00 51 1013.9
20260508161551 64 253 3.0 10.0 0.00 0.00 0.00 51 1013.8
20260508161230 64 244 4.0 10.0 0.00 0.00 0.00 50 1013.9
20260508161130 64 207 4.0 12.0 0.00 0.00 0.00 50 1013.9
20260508161030 64 155 4.0 12.0 0.00 0.00 0.00 50 1014.0
20260508160929 64 154 2.0 12.0 0.00 0.00 0.00 50 1013.9
20260508160833 64 275 2.0 12.0 0.00 0.00 0.00 52 1013.9
20260508160812 64 227 2.0 12.0 0.00 0.00 0.00 52 1013.7
20260508160750 64 171 2.0 12.0 0.00 0.00 0.00 52 1013.8
20260508160429 64 219 6.0 13.0 0.00 0.00 0.00 51 1013.7
20260508160329 64 227 5.0 13.0 0.00 0.00 0.00 51 1013.8
20260508160231 64 209 4.0 13.0 0.00 0.00 0.00 51 1013.7
20260508160128 64 214 3.0 13.0 0.00 0.00 0.00 51 1013.8
20260508160030 64 255 4.0 13.0 0.00 0.00 0.00 51 1013.8
20260508155929 64 188 5.0 13.0 0.00 0.00 0.00 51 1013.8
20260508155850 64 201 6.0 13.0 0.00 0.00 0.00 51 1013.7
20260508155728 64 170 5.0 13.0 0.00 0.00 0.00 51 1013.7
20260508155630 64 204 3.0 13.0 0.00 0.00 0.00 51 1013.7
20260508155526 63 165 3.0 10.0 0.00 0.00 0.00 51 1013.7
20260508155425 63 217 2.0 10.0 0.00 0.00 0.00 52 1013.7
20260508155324 63 226 4.0 10.0 0.00 0.00 0.00 51 1013.6
20260508155228 63 258 5.0 10.0 0.00 0.00 0.00 52 1013.7
20260508155154 63 273 4.0 13.0 0.00 0.00 0.00 51 1013.7
20260508155143 63 240 3.0 13.0 0.00 0.00 0.00 52 1013.7
20260508154824 63 207 4.0 13.0 0.00 0.00 0.00 51 1013.7
20260508154806 63 202 6.0 13.0 0.00 0.00 0.00 52 1013.7
20260508154742 63 173 6.0 13.0 0.00 0.00 0.00 51 1013.7
20260508154418 63 218 4.0 13.0 0.00 0.00 0.00 51 1013.7
20260508154320 63 202 5.0 13.0 0.00 0.00 0.00 51 1013.7
20260508154220 63 229 5.0 13.0 0.00 0.00 0.00 52 1013.6
20260508154116 63 265 4.0 10.0 0.00 0.00 0.00 52 1013.6
20260508154015 63 222 4.0 11.0 0.00 0.00 0.00 52 1013.6
20260508153949 63 196 4.0 11.0 0.00 0.00 0.00 52 1013.6
20260508153938 63 266 4.0 11.0 0.00 0.00 0.00 51 1013.7
20260508153613 62 238 4.0 11.0 0.00 0.00 0.00 51 1013.6
20260508153512 62 242 5.0 12.0 0.00 0.00 0.00 51 1013.6
20260508153414 62 232 4.0 12.0 0.00 0.00 0.00 51 1013.6
20260508153353 62 230 4.0 12.0 0.00 0.00 0.00 52 1013.6
20260508153341 62 179 4.0 12.0 0.00 0.00 0.00 52 1013.6
20260508153011 62 213 4.0 12.0 0.00 0.00 0.00 52 1013.5
20260508152909 62 161 4.0 12.0 0.00 0.00 0.00 52 1013.5
20260508152831 62 187 4.0 12.0 0.00 0.00 0.00 52 1013.5
20260508152712 62 275 4.0 12.0 0.00 0.00 0.00 52 1013.5
20260508152606 62 198 3.0 12.0 0.00 0.00 0.00 52 1013.4
20260508152505 62 220 6.0 11.0 0.00 0.00 0.00 52 1013.5
20260508152402 62 199 4.0 11.0 0.00 0.00 0.00 52 1013.4
20260508152306 62 167 2.0 11.0 0.00 0.00 0.00 53 1013.5
20260508152213 62 207 4.0 11.0 0.00 0.00 0.00 53 1013.4
20260508152101 62 234 5.0 11.0 0.00 0.00 0.00 53 1013.4
20260508152003 62 202 5.0 15.0 0.00 0.00 0.00 52 1013.5
20260508151904 62 284 6.0 15.0 0.00 0.00 0.00 52 1013.5
20260508151801 62 194 2.0 15.0 0.00 0.00 0.00 53 1013.5
20260508151705 62 193 3.0 15.0 0.00 0.00 0.00 53 1013.5
20260508151631 62 17 4.0 15.0 0.00 0.00 0.00 53 1013.5
20260508151620 62 219 4.0 15.0 0.00 0.00 0.00 53 1013.5
20260508151258 61 245 6.0 15.0 0.00 0.00 0.00 52 1013.5
20260508151205 61 246 6.0 15.0 0.00 0.00 0.00 53 1013.5
20260508151057 61 198 5.0 15.0 0.00 0.00 0.00 52 1013.6
20260508150955 61 231 5.0 12.0 0.00 0.00 0.00 53 1013.6
20260508150857 61 217 4.0 12.0 0.00 0.00 0.00 53 1013.4
20260508150841 61 148 4.0 12.0 0.00 0.00 0.00 53 1013.4
20260508150830 61 230 4.0 11.0 0.00 0.00 0.00 53 1013.4
20260508150453 61 184 2.0 7.0 0.00 0.00 0.00 54 1013.5
20260508150354 61 250 2.0 7.0 0.00 0.00 0.00 54 1013.5
20260508150251 61 186 2.0 7.0 0.00 0.00 0.00 54 1013.5
20260508150157 61 205 2.0 9.0 0.00 0.00 0.00 54 1013.5
20260508150121 61 182 3.0 10.0 0.00 0.00 0.00 54 1013.5
20260508150107 61 188 3.0 10.0 0.00 0.00 0.00 54 1013.5
20260508145816 61 251 3.0 10.0 0.00 0.00 0.00 54 1013.4
20260508145731 61 284 4.0 10.0 0.00 0.00 0.00 54 1013.5
20260508145708 61 254 4.0 10.0 0.00 0.00 0.00 53 1013.5
20260508145428 60 225 4.0 10.0 0.00 0.00 0.00 53 1013.4
20260508145413 60 234 5.0 10.0 0.00 0.00 0.00 53 1013.5
20260508145110 60 239 4.0 10.0 0.00 0.00 0.00 53 1013.4
20260508145057 60 268 3.0 16.0 0.00 0.00 0.00 53 1013.4
20260508145046 60 211 3.0 16.0 0.00 0.00 0.00 53 1013.4
20260508145032 60 226 3.0 16.0 0.00 0.00 0.00 53 1013.4
20260508144440 60 47 4.0 16.0 0.00 0.00 0.00 53 1013.3
20260508144424 60 236 4.0 16.0 0.00 0.00 0.00 53 1013.2
20260508144411 60 188 5.0 16.0 0.00 0.00 0.00 53 1013.2
20260508144036 60 234 4.0 16.0 0.00 0.00 0.00 53 1013.3
20260508143938 60 277 4.0 13.0 0.00 0.00 0.00 53 1013.3
20260508143835 60 221 6.0 13.0 0.00 0.00 0.00 53 1013.2
20260508143736 60 270 6.0 13.0 0.00 0.00 0.00 53 1013.3
20260508143633 60 144 4.0 13.0 0.00 0.00 0.00 53 1013.2
20260508143532 60 272 3.0 8.0 0.00 0.00 0.00 53 1013.2
20260508143432 60 268 3.0 11.0 0.00 0.00 0.00 53 1013.2
20260508143331 60 238 4.0 11.0 0.00 0.00 0.00 53 1013.2
20260508143231 60 267 4.0 11.0 0.00 0.00 0.00 53 1013.2
20260508143130 60 213 5.0 14.0 0.00 0.00 0.00 53 1013.3
20260508143030 60 165 4.0 14.0 0.00 0.00 0.00 53 1013.2
20260508142929 60 269 4.0 14.0 0.00 0.00 0.00 53 1013.2
20260508142830 60 189 4.0 14.0 0.00 0.00 0.00 53 1013.2
20260508142800 60 199 4.0 14.0 0.00 0.00 0.00 53 1013.1
20260508142703 60 215 5.0 14.0 0.00 0.00 0.00 53 1013.1
20260508142651 60 242 5.0 14.0 0.00 0.00 0.00 53 1013.1
20260508142412 60 261 5.0 14.0 0.00 0.00 0.00 53 1013.1
20260508142359 60 158 4.0 14.0 0.00 0.00 0.00 53 1013.0
20260508142029 60 190 5.0 12.0 0.00 0.00 0.00 53 1013.0
20260508141926 60 225 5.0 12.0 0.00 0.00 0.00 53 1013.0
20260508141825 60 171 4.0 12.0 0.00 0.00 0.00 53 1013.0
20260508141725 60 179 5.0 12.0 0.00 0.00 0.00 53 1013.0
20260508141624 60 254 6.0 12.0 0.00 0.00 0.00 53 1013.0
20260508141523 60 165 4.0 12.0 0.00 0.00 0.00 53 1013.1
20260508141425 60 207 4.0 12.0 0.00 0.00 0.00 53 1013.0
20260508141351 60 144 4.0 12.0 0.00 0.00 0.00 53 1013.0
20260508141339 60 248 6.0 12.0 0.00 0.00 0.00 52 1013.0
20260508141005 60 185 5.0 16.0 0.00 0.00 0.00 53 1013.0
20260508140905 60 194 5.0 16.0 0.00 0.00 0.00 53 1012.9
20260508140802 60 170 3.0 16.0 0.00 0.00 0.00 53 1012.9
20260508140713 60 200 5.0 16.0 0.00 0.00 0.00 53 1012.9
20260508140649 60 171 4.0 16.0 0.00 0.00 0.00 53 1012.9
20260508140636 60 184 4.0 16.0 0.00 0.00 0.00 53 1012.8
20260508140625 60 239 5.0 16.0 0.00 0.00 0.00 53 1012.8
20260508140351 60 215 4.0 16.0 0.00 0.00 0.00 53 1012.9
20260508140105 60 204 4.0 14.0 0.00 0.00 0.00 53 1012.9
20260508140054 60 204 4.0 14.0 0.00 0.00 0.00 53 1012.8
20260508140042 60 235 4.0 14.0 0.00 0.00 0.00 53 1012.8
20260508135759 60 150 6.0 14.0 0.00 0.00 0.00 53 1012.9
20260508135716 60 223 5.0 14.0 0.00 0.00 0.00 53 1012.9
20260508135445 60 273 4.0 11.0 0.00 0.00 0.00 53 1012.8
20260508135156 60 266 4.0 11.0 0.00 0.00 0.00 53 1012.9
20260508135145 60 113 4.0 9.0 0.00 0.00 0.00 53 1012.7
20260508135133 59 171 4.0 10.0 0.00 0.00 0.00 53 1012.8
20260508135122 59 226 3.0 12.0 0.00 0.00 0.00 53 1012.8
20260508135110 59 192 4.0 12.0 0.00 0.00 0.00 53 1012.8
20260508134607 59 194 4.0 12.0 0.00 0.00 0.00 53 1012.8
20260508134336 59 232 4.0 13.0 0.00 0.00 0.00 53 1012.7
20260508134001 59 199 4.0 13.0 0.00 0.00 0.00 53 1012.8
20260508133901 59 168 4.0 13.0 0.00 0.00 0.00 53 1012.7
20260508133831 59 236 4.0 13.0 0.00 0.00 0.00 53 1012.6
20260508133817 59 199 3.0 13.0 0.00 0.00 0.00 53 1012.7
20260508133755 59 150 4.0 13.0 0.00 0.00 0.00 53 1012.7
20260508133520 59 148 4.0 13.0 0.00 0.00 0.00 53 1012.6
20260508133508 59 172 4.0 9.0 0.00 0.00 0.00 53 1012.6
20260508133222 59 265 3.0 9.0 0.00 0.00 0.00 53 1012.6
20260508132904 59 85 3.0 10.0 0.00 0.00 0.00 53 1012.6
20260508132801 59 208 3.0 10.0 0.00 0.00 0.00 53 1012.5
20260508132706 59 238 3.0 10.0 0.00 0.00 0.00 53 1012.6
20260508132600 59 212 3.0 14.0 0.00 0.00 0.00 52 1012.5
20260508132500 59 173 3.0 14.0 0.00 0.00 0.00 53 1012.5
20260508132358 59 230 4.0 14.0 0.00 0.00 0.00 53 1012.5
20260508132258 59 185 4.0 14.0 0.00 0.00 0.00 52 1012.5
20260508132158 59 165 3.0 14.0 0.00 0.00 0.00 52 1012.5
20260508132058 59 194 5.0 14.0 0.00 0.00 0.00 52 1012.5
20260508131957 59 222 5.0 14.0 0.00 0.00 0.00 52 1012.5
20260508131855 59 229 5.0 14.0 0.00 0.00 0.00 52 1012.4
20260508131755 59 256 4.0 14.0 0.00 0.00 0.00 52 1012.4
20260508131654 59 166 3.0 14.0 0.00 0.00 0.00 51 1012.5
20260508131556 59 282 2.0 8.0 0.00 0.00 0.00 51 1012.4
20260508131452 59 237 2.0 8.0 0.00 0.00 0.00 51 1012.4
20260508131356 59 244 3.0 8.0 0.00 0.00 0.00 51 1012.4
20260508131251 59 202 2.0 13.0 0.00 0.00 0.00 50 1012.4
20260508131151 59 215 2.0 13.0 0.00 0.00 0.00 50 1012.4
20260508131050 59 177 3.0 13.0 0.00 0.00 0.00 50 1012.4
20260508130949 59 163 4.0 13.0 0.00 0.00 0.00 50 1012.4
20260508130922 59 148 4.0 13.0 0.00 0.00 0.00 50 1012.5
20260508130909 59 155 4.0 13.0 0.00 0.00 0.00 49 1012.4
20260508130618 59 167 4.0 13.0 0.00 0.00 0.00 49 1012.5
20260508130605 59 182 4.0 13.0 0.00 0.00 0.00 49 1012.5
20260508130246 59 184 3.0 12.0 0.00 0.00 0.00 49 1012.4
20260508130144 59 250 3.0 12.0 0.00 0.00 0.00 48 1012.4
20260508130037 59 157 4.0 12.0 0.00 0.00 0.00 49 1012.5
20260508125936 59 157 5.0 12.0 0.00 0.00 0.00 49 1012.4
20260508125835 59 211 3.0 12.0 0.00 0.00 0.00 48 1012.4
20260508125734 59 199 3.0 12.0 0.00 0.00 0.00 48 1012.5
20260508125648 59 197 4.0 12.0 0.00 0.00 0.00 48 1012.4
20260508125532 59 194 4.0 12.0 0.00 0.00 0.00 48 1012.4
20260508125505 59 144 4.0 9.0 0.00 0.00 0.00 48 1012.4
20260508125454 59 250 5.0 9.0 0.00 0.00 0.00 48 1012.4
20260508125136 59 202 3.0 9.0 0.00 0.00 0.00 48 1012.4
20260508125102 59 213 2.0 9.0 0.00 0.00 0.00 48 1012.4
20260508125051 59 225 2.0 9.0 0.00 0.00 0.00 48 1012.4
20260508124729 59 190 3.0 9.0 0.00 0.00 0.00 49 1012.4
20260508124631 59 253 4.0 9.0 0.00 0.00 0.00 48 1012.4
20260508124530 59 227 4.0 9.0 0.00 0.00 0.00 48 1012.4
20260508124429 59 250 3.0 10.0 0.00 0.00 0.00 49 1012.3
20260508124329 59 246 3.0 10.0 0.00 0.00 0.00 49 1012.4
20260508124231 59 193 3.0 10.0 0.00 0.00 0.00 49 1012.4
20260508124129 59 178 3.0 10.0 0.00 0.00 0.00 49 1012.4
20260508124029 59 179 3.0 10.0 0.00 0.00 0.00 49 1012.3
20260508123929 59 185 2.0 10.0 0.00 0.00 0.00 49 1012.3
20260508123905 58 207 3.0 10.0 0.00 0.00 0.00 49 1012.3
20260508123854 59 155 4.0 10.0 0.00 0.00 0.00 49 1012.3
20260508123607 58 193 3.0 10.0 0.00 0.00 0.00 49 1012.3
20260508123553 58 221 4.0 10.0 0.00 0.00 0.00 49 1012.3
20260508123542 58 186 3.0 10.0 0.00 0.00 0.00 49 1012.3
20260508123528 58 236 2.0 10.0 0.00 0.00 0.00 49 1012.3
20260508123515 58 248 2.0 6.0 0.00 0.00 0.00 49 1012.3
20260508123234 58 215 2.0 9.0 0.00 0.00 0.00 49 1012.2
20260508123222 58 232 2.0 9.0 0.00 0.00 0.00 49 1012.3
20260508123211 58 194 3.0 9.0 0.00 0.00 0.00 49 1012.3
20260508122708 58 178 3.0 9.0 0.00 0.00 0.00 49 1012.3
20260508122657 58 203 2.0 9.0 0.00 0.00 0.00 49 1012.3
20260508122643 58 205 3.0 9.0 0.00 0.00 0.00 49 1012.3
20260508122632 58 236 3.0 9.0 0.00 0.00 0.00 49 1012.3
20260508122539 58 263 3.0 8.0 0.00 0.00 0.00 49 1012.3
20260508122309 59 174 3.0 8.0 0.00 0.00 0.00 49 1012.3
20260508122258 58 194 3.0 8.0 0.00 0.00 0.00 49 1012.3
20260508121230 59 221 3.0 9.0 0.00 0.00 0.00 48 1012.3
20260508121129 59 194 3.0 9.0 0.00 0.00 0.00 48 1012.2
20260508121029 59 204 3.0 9.0 0.00 0.00 0.00 48 1012.3
20260508120927 59 233 3.0 10.0 0.00 0.00 0.00 48 1012.3
20260508120827 59 156 2.0 10.0 0.00 0.00 0.00 48 1012.3
20260508120728 58 179 4.0 10.0 0.00 0.00 0.00 48 1012.4
20260508120712 58 192 4.0 11.0 0.00 0.00 0.00 48 1012.3
20260508120649 58 237 5.0 11.0 0.00 0.00 0.00 48 1012.3
20260508120324 58 187 3.0 11.0 0.00 0.00 0.00 48 1012.4
20260508120226 58 223 4.0 11.0 0.00 0.00 0.00 48 1012.4
20260508120122 58 165 4.0 11.0 0.00 0.00 0.00 48 1012.3
20260508120020 58 209 3.0 11.0 0.00 0.00 0.00 48 1012.3
20260508115920 58 194 3.0 11.0 0.00 0.00 0.00 48 1012.3
20260508115819 58 244 4.0 11.0 0.00 0.00 0.00 48 1012.3
20260508115718 58 178 3.0 11.0 0.00 0.00 0.00 48 1012.4
20260508115618 58 251 3.0 11.0 0.00 0.00 0.00 48 1012.4
20260508115524 58 185 4.0 11.0 0.00 0.00 0.00 48 1012.4
20260508115510 58 173 4.0 11.0 0.00 0.00 0.00 48 1012.4
20260508115459 58 189 4.0 11.0 0.00 0.00 0.00 48 1012.3
20260508115446 59 188 4.0 11.0 0.00 0.00 0.00 48 1012.3
20260508115133 59 158 3.0 10.0 0.00 0.00 0.00 48 1012.3
20260508114813 59 175 4.0 13.0 0.00 0.00 0.00 48 1012.3
20260508114711 59 233 4.0 13.0 0.00 0.00 0.00 48 1012.3
20260508114611 59 222 5.0 13.0 0.00 0.00 0.00 48 1012.3
20260508114511 59 185 4.0 13.0 0.00 0.00 0.00 48 1012.3
20260508114409 59 184 5.0 13.0 0.00 0.00 0.00 48 1012.3
20260508114309 58 213 6.0 13.0 0.00 0.00 0.00 48 1012.3
20260508114208 58 216 4.0 13.0 0.00 0.00 0.00 48 1012.3
20260508114107 58 191 4.0 13.0 0.00 0.00 0.00 48 1012.3
20260508114007 58 197 5.0 13.0 0.00 0.00 0.00 47 1012.2
20260508113936 58 168 4.0 12.0 0.00 0.00 0.00 48 1012.3
20260508113923 58 202 4.0 13.0 0.00 0.00 0.00 48 1012.2
20260508113601 58 314 4.0 13.0 0.00 0.00 0.00 48 1012.2
20260508113501 58 157 4.0 13.0 0.00 0.00 0.00 48 1012.1
20260508113401 58 171 4.0 13.0 0.00 0.00 0.00 48 1012.2
20260508113306 58 136 3.0 13.0 0.00 0.00 0.00 48 1012.2
20260508113202 58 213 4.0 13.0 0.00 0.00 0.00 48 1012.2
20260508113101 58 152 5.0 13.0 0.00 0.00 0.00 48 1012.2
20260508113002 58 210 4.0 13.0 0.00 0.00 0.00 48 1012.3
20260508112942 58 216 4.0 10.0 0.00 0.00 0.00 48 1012.1
20260508112930 59 155 4.0 10.0 0.00 0.00 0.00 48 1012.2
20260508112919 59 189 4.0 9.0 0.00 0.00 0.00 48 1012.1
20260508112905 59 215 4.0 10.0 0.00 0.00 0.00 48 1012.2
20260508112620 59 228 4.0 10.0 0.00 0.00 0.00 48 1012.1
20260508112346 59 184 4.0 10.0 0.00 0.00 0.00 48 1012.1
20260508112025 59 165 4.0 15.0 0.00 0.00 0.00 48 1012.1
20260508112012 59 199 4.0 15.0 0.00 0.00 0.00 48 1012.1
20260508111732 59 279 2.0 15.0 0.00 0.00 0.00 48 1012.1
20260508111720 59 194 4.0 15.0 0.00 0.00 0.00 48 1012.1
20260508111348 59 215 5.0 15.0 0.00 0.00 0.00 48 1012.1
20260508111248 59 146 5.0 15.0 0.00 0.00 0.00 48 1012.1
20260508111147 59 212 4.0 15.0 0.00 0.00 0.00 48 1012.0
20260508111114 59 260 4.0 10.0 0.00 0.00 0.00 47 1012.1
20260508111047 59 166 4.0 10.0 0.00 0.00 0.00 47 1012.0
20260508111036 59 167 3.0 10.0 0.00 0.00 0.00 47 1012.1
20260508110805 59 192 4.0 10.0 0.00 0.00 0.00 47 1012.1
20260508110443 59 217 4.0 10.0 0.00 0.00 0.00 47 1012.1
20260508110342 59 176 5.0 10.0 0.00 0.00 0.00 47 1012.1
20260508110242 59 254 4.0 15.0 0.00 0.00 0.00 47 1012.1
20260508110224 59 207 4.0 15.0 0.00 0.00 0.00 47 1012.1
20260508110211 59 231 4.0 15.0 0.00 0.00 0.00 47 1012.0
20260508105839 59 257 4.0 15.0 0.00 0.00 0.00 47 1012.0
20260508105738 59 191 3.0 15.0 0.00 0.00 0.00 47 1012.0
20260508105637 59 246 3.0 15.0 0.00 0.00 0.00 47 1012.1
20260508105537 59 203 4.0 15.0 0.00 0.00 0.00 47 1012.1
20260508105436 59 173 4.0 15.0 0.00 0.00 0.00 47 1012.0
20260508105337 59 155 3.0 13.0 0.00 0.00 0.00 47 1012.0
20260508105234 59 236 4.0 13.0 0.00 0.00 0.00 47 1012.0
20260508105133 59 232 3.0 13.0 0.00 0.00 0.00 47 1012.0
20260508105039 59 194 3.0 13.0 0.00 0.00 0.00 47 1012.0
20260508104932 59 187 4.0 13.0 0.00 0.00 0.00 46 1012.0
20260508104831 59 159 4.0 13.0 0.00 0.00 0.00 46 1012.0
20260508104730 59 207 4.0 12.0 0.00 0.00 0.00 46 1012.1
20260508104630 59 167 5.0 12.0 0.00 0.00 0.00 46 1012.0
20260508104534 59 220 5.0 12.0 0.00 0.00 0.00 46 1012.0
20260508104434 59 182 5.0 12.0 0.00 0.00 0.00 46 1012.0
20260508104400 59 205 4.0 10.0 0.00 0.00 0.00 46 1012.0
20260508104345 59 203 3.0 10.0 0.00 0.00 0.00 46 1012.0
20260508104333 59 281 3.0 10.0 0.00 0.00 0.00 46 1012.0
20260508104050 59 192 6.0 11.0 0.00 0.00 0.00 46 1012.0
20260508103730 59 153 3.0 11.0 0.00 0.00 0.00 45 1012.0
20260508103632 59 242 3.0 11.0 0.00 0.00 0.00 45 1012.0
20260508103535 59 196 3.0 11.0 0.00 0.00 0.00 45 1011.9
20260508103430 59 184 4.0 11.0 0.00 0.00 0.00 45 1012.0
20260508103329 59 234 5.0 11.0 0.00 0.00 0.00 44 1012.0
20260508103230 60 164 4.0 12.0 0.00 0.00 0.00 44 1012.0
20260508103129 60 144 5.0 12.0 0.00 0.00 0.00 44 1012.0
20260508103034 60 244 5.0 12.0 0.00 0.00 0.00 44 1012.0
20260508102928 60 215 5.0 12.0 0.00 0.00 0.00 44 1012.0
20260508102829 60 246 5.0 12.0 0.00 0.00 0.00 44 1012.0
20260508102729 60 160 6.0 12.0 0.00 0.00 0.00 44 1012.0
20260508102629 60 134 6.0 12.0 0.00 0.00 0.00 44 1012.0
20260508102530 60 220 6.0 13.0 0.00 0.00 0.00 44 1012.0
20260508102428 60 211 5.0 13.0 0.00 0.00 0.00 44 1012.0
20260508102328 60 177 5.0 13.0 0.00 0.00 0.00 44 1012.0
20260508102247 60 232 5.0 13.0 0.00 0.00 0.00 44 1012.0
20260508102130 60 200 6.0 13.0 0.00 0.00 0.00 44 1012.0
20260508102032 60 182 5.0 13.0 0.00 0.00 0.00 44 1012.0
20260508101929 60 234 5.0 13.0 0.00 0.00 0.00 44 1012.0
20260508101829 60 159 4.0 13.0 0.00 0.00 0.00 44 1011.9
20260508101807 60 266 5.0 13.0 0.00 0.00 0.00 44 1011.9
20260508101756 60 208 4.0 13.0 0.00 0.00 0.00 44 1011.9
20260508101744 60 196 4.0 11.0 0.00 0.00 0.00 44 1011.9
20260508101719 60 257 4.0 11.0 0.00 0.00 0.00 43 1012.0
20260508101222 60 321 4.0 14.0 0.00 0.00 0.00 43 1011.9
20260508101211 60 269 5.0 14.0 0.00 0.00 0.00 43 1012.0
20260508101147 60 180 3.0 14.0 0.00 0.00 0.00 43 1012.0
20260508100916 60 227 4.0 14.0 0.00 0.00 0.00 43 1012.0
20260508100904 60 113 4.0 14.0 0.00 0.00 0.00 43 1012.0
20260508100622 60 141 6.0 14.0 0.00 0.00 0.00 43 1012.0
20260508100608 60 192 6.0 14.0 0.00 0.00 0.00 43 1012.0
20260508100024 60 181 3.0 11.0 0.00 0.00 0.00 42 1012.0
20260508095924 60 229 4.0 11.0 0.00 0.00 0.00 42 1012.0
20260508095823 60 149 5.0 11.0 0.00 0.00 0.00 42 1012.0
20260508095724 60 165 4.0 12.0 0.00 0.00 0.00 42 1012.0
20260508095630 60 244 3.0 12.0 0.00 0.00 0.00 42 1011.9
20260508095612 60 188 3.0 12.0 0.00 0.00 0.00 42 1012.0
20260508095549 60 124 3.0 12.0 0.00 0.00 0.00 42 1012.0
20260508095537 60 229 4.0 12.0 0.00 0.00 0.00 42 1012.0
20260508095306 60 225 4.0 12.0 0.00 0.00 0.00 41 1012.0
20260508095252 60 152 4.0 12.0 0.00 0.00 0.00 41 1011.9
20260508095157 60 195 4.0 12.0 0.00 0.00 0.00 41 1011.9
20260508094616 60 160 3.0 11.0 0.00 0.00 0.00 41 1011.9
20260508094514 60 202 4.0 11.0 0.00 0.00 0.00 41 1011.9
20260508094413 60 193 5.0 12.0 0.00 0.00 0.00 41 1012.0
20260508094313 60 269 5.0 12.0 0.00 0.00 0.00 41 1011.9
20260508094212 60 189 4.0 12.0 0.00 0.00 0.00 41 1011.9
20260508094111 60 204 4.0 12.0 0.00 0.00 0.00 41 1011.9
20260508094015 60 169 4.0 12.0 0.00 0.00 0.00 41 1012.0
20260508093910 60 202 4.0 12.0 0.00 0.00 0.00 41 1011.9
20260508093809 60 240 5.0 12.0 0.00 0.00 0.00 41 1011.9
20260508093709 60 178 6.0 12.0 0.00 0.00 0.00 41 1011.9
20260508093608 60 218 6.0 12.0 0.00 0.00 0.00 41 1011.9
20260508093512 60 209 4.0 12.0 0.00 0.00 0.00 40 1011.9
20260508093406 60 166 3.0 12.0 0.00 0.00 0.00 41 1011.9
20260508093305 60 223 3.0 12.0 0.00 0.00 0.00 40 1011.9
20260508093205 60 196 2.0 12.0 0.00 0.00 0.00 40 1011.8
20260508093104 60 184 4.0 12.0 0.00 0.00 0.00 40 1011.8
20260508093009 60 233 5.0 12.0 0.00 0.00 0.00 40 1011.8
20260508092902 60 229 4.0 12.0 0.00 0.00 0.00 40 1011.9
20260508092801 60 209 4.0 11.0 0.00 0.00 0.00 40 1011.9
20260508092701 60 221 4.0 11.0 0.00 0.00 0.00 39 1011.9
20260508092600 60 209 4.0 11.0 0.00 0.00 0.00 39 1012.0
20260508092507 60 238 4.0 11.0 0.00 0.00 0.00 39 1012.0
20260508092401 60 252 4.0 11.0 0.00 0.00 0.00 38 1011.9
20260508092312 60 215 3.0 10.0 0.00 0.00 0.00 38 1012.0
20260508092201 60 196 3.0 10.0 0.00 0.00 0.00 38 1011.9
20260508092101 60 241 4.0 10.0 0.00 0.00 0.00 38 1011.9
20260508092006 60 327 4.0 10.0 0.00 0.00 0.00 37 1012.0
20260508091904 60 202 4.0 10.0 0.00 0.00 0.00 37 1011.9
20260508091805 60 163 3.0 10.0 0.00 0.00 0.00 37 1011.9
20260508091705 60 208 3.0 10.0 0.00 0.00 0.00 37 1012.0
20260508091602 60 165 3.0 10.0 0.00 0.00 0.00 37 1011.9
20260508091509 60 44 4.0 10.0 0.00 0.00 0.00 37 1011.9
20260508091401 60 225 4.0 10.0 0.00 0.00 0.00 36 1012.0
20260508091305 60 188 4.0 10.0 0.00 0.00 0.00 36 1011.9
20260508091202 60 178 4.0 10.0 0.00 0.00 0.00 36 1012.0
20260508091101 60 209 4.0 10.0 0.00 0.00 0.00 36 1011.9
20260508091005 60 205 4.0 10.0 0.00 0.00 0.00 36 1012.0
20260508090933 60 206 4.0 8.0 0.00 0.00 0.00 36 1011.9
20260508090921 61 217 4.0 8.0 0.00 0.00 0.00 35 1012.0
20260508090601 61 269 5.0 8.0 0.00 0.00 0.00 35 1012.0
20260508090503 61 149 4.0 7.0 0.00 0.00 0.00 35 1012.0
20260508090402 61 256 2.0 7.0 0.00 0.00 0.00 35 1012.0
20260508090305 61 189 2.0 7.0 0.00 0.00 0.00 34 1012.0
20260508090203 61 209 4.0 10.0 0.00 0.00 0.00 34 1012.0
20260508090002 61 209 3.0 10.0 0.00 0.00 0.00 34 1012.0
20260508085903 61 194 4.0 10.0 0.00 0.00 0.00 34 1012.0
20260508085801 61 181 4.0 10.0 0.00 0.00 0.00 33 1012.0
20260508085701 61 241 4.0 10.0 0.00 0.00 0.00 33 1011.9
20260508085600 61 195 4.0 10.0 0.00 0.00 0.00 33 1012.0
20260508085501 61 204 4.0 10.0 0.00 0.00 0.00 33 1012.0
20260508085359 61 198 4.0 10.0 0.00 0.00 0.00 33 1012.0
20260508085258 61 237 4.0 10.0 0.00 0.00 0.00 33 1012.0
20260508085158 61 227 4.0 9.0 0.00 0.00 0.00 33 1012.0
20260508085057 61 223 4.0 9.0 0.00 0.00 0.00 33 1012.0
20260508085025 61 228 4.0 9.0 0.00 0.00 0.00 32 1012.0
20260508084856 61 184 5.0 9.0 0.00 0.00 0.00 32 1011.9
20260508084755 61 181 4.0 9.0 0.00 0.00 0.00 32 1012.0
20260508084655 61 231 3.0 9.0 0.00 0.00 0.00 32 1011.9
20260508084556 61 226 3.0 8.0 0.00 0.00 0.00 32 1011.9
20260508084540 61 165 3.0 12.0 0.00 0.00 0.00 32 1011.9
20260508084517 61 204 4.0 12.0 0.00 0.00 0.00 32 1011.9
20260508084503 61 219 4.0 12.0 0.00 0.00 0.00 32 1012.0
20260508084450 62 161 4.0 15.0 0.00 0.00 0.00 31 1011.9
20260508084438 62 240 4.0 15.0 0.00 0.00 0.00 32 1012.0
20260508084154 62 252 4.0 15.0 0.00 0.00 0.00 31 1011.9
20260508083922 62 229 4.0 15.0 0.00 0.00 0.00 31 1011.9
20260508083649 62 196 5.0 15.0 0.00 0.00 0.00 31 1011.9
20260508083625 62 239 5.0 15.0 0.00 0.00 0.00 31 1012.0
20260508083044 62 169 6.0 12.0 0.00 0.00 0.00 30 1012.0
20260508082946 62 159 4.0 12.0 0.00 0.00 0.00 30 1011.9
20260508082844 62 188 3.0 11.0 0.00 0.00 0.00 30 1012.0
20260508082741 62 214 4.0 11.0 0.00 0.00 0.00 30 1012.0
20260508082641 62 213 5.0 11.0 0.00 0.00 0.00 30 1012.0
20260508082624 62 231 5.0 11.0 0.00 0.00 0.00 30 1012.0
20260508082611 62 177 5.0 11.0 0.00 0.00 0.00 30 1012.0
20260508082309 62 130 3.0 10.0 0.00 0.00 0.00 30 1012.0
20260508082258 62 155 4.0 10.0 0.00 0.00 0.00 30 1012.0
20260508082008 62 163 4.0 10.0 0.00 0.00 0.00 29 1012.0
20260508081836 62 180 4.0 9.0 0.00 0.00 0.00 29 1012.0
20260508081806 62 208 4.0 11.0 0.00 0.00 0.00 29 1012.0
20260508081754 62 194 4.0 11.0 0.00 0.00 0.00 29 1012.0
20260508081442 62 173 4.0 11.0 0.00 0.00 0.00 29 1012.0
20260508081329 62 221 4.0 11.0 0.00 0.00 0.00 29 1012.0
20260508081229 62 207 5.0 11.0 0.00 0.00 0.00 29 1012.0
20260508081129 62 168 4.0 11.0 0.00 0.00 0.00 28 1012.0
20260508081029 62 227 4.0 11.0 0.00 0.00 0.00 28 1012.0
20260508080934 62 217 4.0 11.0 0.00 0.00 0.00 28 1012.0
20260508080831 62 190 4.0 11.0 0.00 0.00 0.00 28 1012.0
20260508080729 62 182 4.0 9.0 0.00 0.00 0.00 28 1012.0
20260508080640 62 201 4.0 9.0 0.00 0.00 0.00 28 1012.1
20260508080623 62 198 2.0 9.0 0.00 0.00 0.00 28 1012.0
20260508080611 62 170 2.0 10.0 0.00 0.00 0.00 28 1012.0
20260508080548 62 163 4.0 10.0 0.00 0.00 0.00 28 1012.0
20260508080534 62 213 5.0 10.0 0.00 0.00 0.00 28 1012.1
20260508080524 62 176 4.0 10.0 0.00 0.00 0.00 28 1012.1
20260508080511 62 163 4.0 10.0 0.00 0.00 0.00 27 1012.0
20260508080011 62 186 3.0 10.0 0.00 0.00 0.00 27 1012.1
20260508075738 62 219 4.0 10.0 0.00 0.00 0.00 27 1012.1
20260508075725 62 224 3.0 10.0 0.00 0.00 0.00 27 1012.1
20260508075701 62 194 3.0 10.0 0.00 0.00 0.00 27 1012.1
20260508075209 63 217 4.0 10.0 0.00 0.00 0.00 28 1012.1
20260508074821 63 163 4.0 10.0 0.00 0.00 0.00 27 1012.1
20260508074722 63 178 5.0 10.0 0.00 0.00 0.00 27 1012.1
20260508074649 63 171 5.0 10.0 0.00 0.00 0.00 27 1012.1
20260508074636 63 153 4.0 10.0 0.00 0.00 0.00 27 1012.1
20260508074624 63 142 2.0 8.0 0.00 0.00 0.00 27 1012.1
20260508074337 63 236 4.0 10.0 0.00 0.00 0.00 27 1012.2
20260508074016 63 233 2.0 10.0 0.00 0.00 0.00 27 1012.2
20260508073956 63 173 3.0 10.0 0.00 0.00 0.00 28 1012.2
20260508073932 63 244 4.0 12.0 0.00 0.00 0.00 27 1012.2
20260508073612 64 198 5.0 12.0 0.00 0.00 0.00 27 1012.2
20260508073512 64 281 6.0 12.0 0.00 0.00 0.00 27 1012.2
20260508073454 64 247 7.0 12.0 0.00 0.00 0.00 27 1012.1
20260508073432 64 263 6.0 12.0 0.00 0.00 0.00 27 1012.1
20260508073108 64 273 6.0 12.0 0.00 0.00 0.00 27 1012.1
20260508073008 64 277 6.0 12.0 0.00 0.00 0.00 27 1012.1
20260508072919 64 254 7.0 12.0 0.00 0.00 0.00 27 1012.1
20260508072806 64 229 6.0 11.0 0.00 0.00 0.00 27 1012.1
20260508072706 64 255 6.0 11.0 0.00 0.00 0.00 27 1012.1
20260508072605 64 248 6.0 11.0 0.00 0.00 0.00 27 1012.1
20260508072505 64 259 6.0 11.0 0.00 0.00 0.00 27 1012.0
20260508072404 64 304 5.0 11.0 0.00 0.00 0.00 27 1012.0
20260508072308 64 257 6.0 11.0 0.00 0.00 0.00 27 1012.0
20260508072202 65 240 4.0 11.0 0.00 0.00 0.00 26 1012.0
20260508072106 65 259 4.0 11.0 0.00 0.00 0.00 27 1012.0
20260508072002 65 304 2.0 9.0 0.00 0.00 0.00 28 1012.0
20260508071913 65 264 2.0 9.0 0.00 0.00 0.00 27 1012.0
20260508071802 65 306 3.0 9.0 0.00 0.00 0.00 28 1012.0
20260508071720 65 281 3.0 9.0 0.00 0.00 0.00 27 1012.0
20260508071706 65 287 2.0 9.0 0.00 0.00 0.00 27 1012.0
20260508071655 65 285 2.0 9.0 0.00 0.00 0.00 27 1012.0
20260508071630 66 304 3.0 9.0 0.00 0.00 0.00 26 1012.0
20260508071358 65 178 4.0 9.0 0.00 0.00 0.00 26 1011.9
20260508071347 66 219 2.0 9.0 0.00 0.00 0.00 25 1012.0
20260508071332 66 24 2.0 11.0 0.00 0.00 0.00 26 1011.9
20260508070830 66 167 2.0 11.0 0.00 0.00 0.00 26 1011.9
20260508070551 66 0 2.0 11.0 0.00 0.00 0.00 27 1011.8
20260508070524 66 52 2.0 11.0 0.00 0.00 0.00 26 1011.8
20260508070231 66 273 5.0 11.0 0.00 0.00 0.00 26 1011.8
20260508070221 66 277 5.0 11.0 0.00 0.00 0.00 27 1011.7
20260508065911 65 252 4.0 11.0 0.00 0.00 0.00 27 1011.6
20260508065800 65 205 3.0 10.0 0.00 0.00 0.00 27 1011.7
20260508065703 65 294 3.0 7.0 0.00 0.00 0.00 28 1011.7
20260508065616 65 238 2.0 7.0 0.00 0.00 0.00 28 1011.7
20260508065601 65 276 2.0 4.0 0.00 0.00 0.00 28 1011.7
20260508065549 65 327 3.0 4.0 0.00 0.00 0.00 29 1011.7
20260508065527 65 320 3.0 4.0 0.00 0.00 0.00 28 1011.7
20260508065254 65 5 2.0 8.0 0.00 0.00 0.00 29 1011.7
20260508065242 65 13 1.0 8.0 0.00 0.00 0.00 29 1011.6
20260508064959 65 342 1.0 8.0 0.00 0.00 0.00 29 1011.6
20260508064949 65 340 1.0 8.0 0.00 0.00 0.00 28 1011.6
20260508064937 65 340 2.0 8.0 0.00 0.00 0.00 28 1011.6
20260508064926 65 339 3.0 8.0 0.00 0.00 0.00 28 1011.6
20260508064914 65 352 4.0 8.0 0.00 0.00 0.00 28 1011.6
20260508064820 65 315 4.0 8.0 0.00 0.00 0.00 28 1011.6
20260508064806 65 351 3.0 11.0 0.00 0.00 0.00 28 1011.6
20260508064317 66 331 3.0 11.0 0.00 0.00 0.00 28 1011.5
20260508063517 66 183 3.0 15.0 0.00 0.00 0.00 28 1011.2
20260508063503 66 205 3.0 15.0 0.00 0.00 0.00 28 1011.1
20260508063441 66 217 4.0 15.0 0.00 0.00 0.00 28 1011.1
20260508063428 66 229 5.0 15.0 0.00 0.00 0.00 28 1011.2
20260508063416 66 218 6.0 15.0 0.00 0.00 0.00 28 1011.2
20260508063404 66 170 6.0 15.0 0.00 0.00 0.00 28 1011.1
20260508062858 66 150 4.0 14.0 0.00 0.00 0.00 28 1011.3
20260508062845 66 202 4.0 12.0 0.00 0.00 0.00 29 1011.1
20260508062339 66 159 5.0 12.0 0.00 0.00 0.00 29 1011.3
20260508062323 66 146 3.0 12.0 0.00 0.00 0.00 28 1011.2
20260508062001 66 146 5.0 12.0 0.00 0.00 0.00 29 1011.2
20260508061903 66 213 4.0 12.0 0.00 0.00 0.00 28 1011.3
20260508061806 67 248 5.0 10.0 0.00 0.00 0.00 29 1011.2
20260508061715 67 199 5.0 10.0 0.00 0.00 0.00 29 1011.2
20260508061603 67 198 4.0 10.0 0.00 0.00 0.00 28 1011.2
20260508061502 67 208 5.0 10.0 0.00 0.00 0.00 28 1011.2
20260508061403 66 182 6.0 10.0 0.00 0.00 0.00 29 1011.2
20260508061304 67 171 5.0 10.0 0.00 0.00 0.00 29 1011.2
20260508061201 66 182 5.0 10.0 0.00 0.00 0.00 29 1011.2
20260508061102 67 184 4.0 9.0 0.00 0.00 0.00 29 1011.2
20260508061000 66 171 4.0 9.0 0.00 0.00 0.00 29 1011.2
20260508060909 66 161 4.0 9.0 0.00 0.00 0.00 30 1011.2
20260508060837 66 219 4.0 9.0 0.00 0.00 0.00 30 1011.2
20260508060824 67 182 5.0 9.0 0.00 0.00 0.00 30 1011.2
20260508060812 67 187 6.0 9.0 0.00 0.00 0.00 31 1011.2
20260508060537 67 203 4.0 9.0 0.00 0.00 0.00 31 1011.2
20260508060203 67 209 2.0 9.0 0.00 0.00 0.00 31 1011.2
20260508060104 67 209 3.0 9.0 0.00 0.00 0.00 31 1011.2
20260508060004 67 186 3.0 10.0 0.00 0.00 0.00 31 1011.2